GFSSW_925_thetae_000.txt.gz
Theta_e
309 309 309 309 309 309 309 309 308 307 307 307 306 307 310 311 312 312 313 314 316 315 316 316 317 316 316 316 316 313 312 313 315 318 316 314 314 313 311 313 312 310 310 310 310
309 309 309 309 309 309 309 309 308 308 307 307 307 306 309 311 312 314 313 315 316 315 316 315 314 314 313 317 316 315 313 313 313 316 315 315 312 313 313 311 310 311 308 308 308
310 310 310 310 309 309 309 309 309 309 308 307 307 306 308 311 316 315 318 315 315 314 315 316 316 314 316 316 316 315 314 314 316 316 314 315 313 311 311 311 309 310 309 304 304
312 311 311 310 310 310 310 310 310 310 309 308 307 306 308 313 309 317 315 317 314 313 315 314 314 315 316 316 315 317 314 314 316 317 314 315 313 312 309 314 310 308 308 303 302
314 312 311 311 310 310 310 310 310 310 310 309 307 306 310 315 312 313 315 314 313 313 314 312 314 315 316 315 316 316 316 315 314 313 313 313 312 312 311 309 307 307 306 304 304
315 315 314 314 312 310 307 308 309 310 310 310 309 306 312 308 311 314 314 313 312 314 313 312 312 312 315 315 314 314 315 314 312 313 313 314 313 313 313 311 308 308 308 304 304
315 315 315 315 314 312 310 308 306 305 307 309 308 306 316 308 311 313 313 312 312 313 311 312 313 314 312 314 314 314 314 311 312 312 312 311 313 312 313 312 309 308 306 306 304
316 316 315 315 314 312 310 310 308 307 305 306 306 312 307 311 313 313 312 311 311 312 312 313 313 312 314 312 311 314 313 312 312 310 312 311 314 312 310 310 310 309 307 305 306
316 316 315 315 314 313 310 309 309 307 307 307 311 313 309 312 312 313 312 311 311 310 311 312 313 311 313 311 310 310 310 310 311 311 312 311 313 312 310 308 309 309 307 307 307
316 316 316 315 314 312 310 310 309 310 313 314 316 312 311 311 313 312 311 311 310 310 310 312 309 310 309 309 312 311 310 310 311 312 311 311 312 313 311 308 307 307 305 304 305
317 316 316 316 315 312 310 311 307 307 312 306 308 309 311 312 313 311 310 310 311 310 310 310 310 311 312 310 312 309 309 310 309 310 313 312 312 313 313 310 307 308 310 311 310
318 317 317 317 315 312 311 311 309 309 309 307 307 308 311 312 312 310 310 310 311 311 310 311 311 311 310 309 311 311 311 311 311 310 309 310 311 311 310 312 312 311 311 310 310
320 318 317 317 314 312 308 307 307 309 309 307 306 306 306 310 310 311 308 309 310 310 310 312 312 311 310 310 311 311 312 312 312 310 308 308 311 309 308 309 310 308 309 311 311
322 319 318 317 315 312 310 309 307 309 304 307 308 308 309 308 307 304 306 309 310 311 309 310 310 311 311 312 311 313 310 311 310 311 312 309 314 310 309 309 309 309 309 309 309
323 320 318 317 316 313 312 306 307 306 314 309 309 309 308 306 306 305 303 307 309 310 310 309 311 310 310 312 310 313 310 309 310 310 310 311 312 312 308 309 309 310 308 308 309
323 322 318 316 314 316 311 307 308 307 314 309 307 308 309 309 307 304 304 304 305 307 306 307 307 308 309 309 307 308 310 309 307 308 312 311 311 312 308 309 309 308 308 308 309
322 321 319 317 315 314 314 311 324 315 311 313 309 309 309 309 310 306 306 306 307 308 306 307 306 306 308 310 308 310 310 311 310 309 314 309 308 313 310 310 308 309 309 308 307
319 320 319 318 318 315 315 319 327 322 314 314 318 309 312 310 310 308 306 306 304 306 306 308 310 307 306 308 308 308 310 314 312 312 314 305 310 312 308 308 307 307 306 304 304
318 319 317 317 316 314 315 322 325 322 320 322 321 324 318 310 310 310 306 307 306 305 309 308 310 308 307 308 308 308 310 310 312 297 307 312 310 310 309 309 307 306 305 304 303
315 317 316 318 317 312 317 323 321 316 319 320 323 322 321 316 320 315 313 308 310 305 306 308 311 309 306 306 307 308 308 311 310 314 312 310 311 313 311 311 307 306 306 304 302
312 317 316 317 312 313 319 319 319 315 316 319 321 322 319 321 319 317 317 313 313 310 308 309 311 312 306 307 309 308 309 308 310 314 317 317 315 308 308 308 308 306 307 303 302
311 315 313 311 314 314 318 316 315 316 315 317 317 319 320 319 321 323 323 319 315 313 316 312 315 319 318 308 305 305 309 310 313 314 311 314 314 313 312 311 310 309 306 305 302
311 311 310 312 317 318 315 316 316 316 316 317 318 317 317 319 321 320 319 317 316 317 319 317 318 320 319 316 311 305 306 308 309 309 315 318 316 312 312 310 311 309 308 304 302
305 310 311 310 313 315 315 316 316 314 316 315 316 315 315 316 316 318 316 316 315 314 315 315 318 318 318 315 314 313 309 307 308 311 312 312 311 310 311 311 311 311 309 303 304
299 303 307 309 311 312 313 313 314 313 312 312 314 314 315 315 315 315 314 313 311 312 314 315 318 317 317 317 317 317 316 315 314 313 315 313 312 311 311 312 312 311 311 308 304
298 300 301 304 303 309 310 309 311 311 310 311 312 311 311 311 311 311 309 308 309 308 308 309 316 316 318 316 314 316 315 315 314 314 315 315 315 313 312 312 311 311 311 311 308
296 297 299 298 299 300 304 305 307 304 307 307 306 303 305 304 302 301 302 303 304 306 306 308 310 313 316 312 311 313 315 315 314 314 315 316 314 307 306 307 310 309 302 303 303

GFSSW_925_thetae_003.txt.gz
Theta_e
309 309 309 309 309 309 309 308 308 308 307 306 306 306 307 310 311 312 312 314 315 314 314 314 316 316 315 315 314 309 310 312 313 315 316 313 313 312 310 311 310 308 309 308 309
309 309 309 309 309 309 309 309 309 308 308 307 307 306 306 310 311 313 311 314 315 314 316 315 314 314 313 316 315 314 309 310 310 314 315 314 312 312 312 311 309 310 308 307 308
310 310 310 310 310 310 310 309 309 309 309 309 308 307 306 310 313 310 317 313 316 315 315 315 314 313 315 315 316 314 314 312 314 313 314 314 312 310 311 311 308 309 309 304 304
312 311 310 310 310 310 310 310 310 310 310 310 309 308 306 312 309 315 315 317 315 314 315 315 312 314 315 316 314 316 313 312 314 315 315 314 312 311 308 314 310 307 308 303 303
315 314 314 312 311 310 308 308 308 308 309 310 310 309 307 312 310 312 315 316 314 313 314 311 312 313 315 313 315 315 315 314 312 313 312 312 311 312 310 310 306 306 305 304 303
316 315 315 315 314 313 311 310 308 307 306 307 309 308 311 307 311 311 314 314 313 312 312 311 311 311 313 314 314 313 313 313 312 312 312 314 314 312 312 309 309 307 306 303 303
316 316 315 315 314 314 313 311 310 309 307 306 306 307 313 307 312 312 313 313 312 312 310 310 312 313 312 312 312 313 313 310 309 310 312 310 312 310 312 311 308 306 305 305 303
316 316 315 315 314 314 313 311 309 309 309 307 305 311 304 309 311 312 312 311 311 311 311 311 312 311 312 310 309 312 311 311 310 309 311 310 311 312 308 309 309 308 306 305 305
316 316 316 315 315 314 310 308 310 309 308 307 309 311 306 310 311 311 312 311 310 310 310 312 311 310 311 310 309 308 310 309 310 309 311 310 311 310 310 307 308 307 307 307 307
317 316 316 316 316 313 311 310 311 311 312 314 315 309 305 309 312 312 310 310 309 308 309 310 307 309 307 308 311 310 309 308 309 310 310 311 310 310 310 307 307 308 308 309 309
318 317 317 317 317 313 310 312 307 305 312 306 309 305 309 310 313 310 310 310 308 308 309 309 309 310 310 309 310 308 308 308 308 308 311 310 311 311 311 310 311 311 308 310 309
321 319 319 318 317 313 308 309 308 308 307 306 306 307 308 311 312 310 310 310 310 310 307 309 310 310 309 308 309 309 310 311 311 310 308 309 310 309 308 310 310 311 311 310 310
325 321 319 318 316 314 308 307 307 309 307 306 306 305 306 309 309 309 308 308 310 309 308 312 311 309 309 309 310 309 310 311 311 309 307 306 311 309 307 306 308 309 309 309 309
325 324 320 319 315 313 310 309 307 309 307 306 308 307 309 308 308 303 306 308 309 310 308 309 309 310 309 309 309 312 308 310 310 310 312 308 312 310 309 309 308 308 308 307 308
324 324 321 318 317 314 312 306 306 305 323 312 308 308 308 306 305 304 303 307 309 310 309 308 310 309 310 311 308 311 308 308 308 308 309 310 309 311 309 309 307 307 307 307 307
324 323 320 317 316 315 312 308 306 313 322 312 307 308 309 308 307 304 305 303 304 307 306 307 305 307 308 308 307 307 309 307 306 307 312 310 310 313 308 309 309 308 307 306 305
321 321 319 318 316 315 313 312 324 323 316 315 310 309 308 308 309 306 307 308 308 309 307 306 306 306 307 309 307 308 309 310 309 309 313 308 308 313 310 308 307 309 305 305 303
318 319 319 318 317 314 316 319 327 322 317 315 316 311 317 309 313 307 305 307 305 305 305 308 314 306 305 307 308 307 308 311 311 312 314 304 309 313 309 307 306 305 305 303 303
314 318 317 319 317 314 317 324 320 321 319 321 320 322 319 311 312 310 307 307 307 305 310 307 308 306 305 306 307 306 308 308 311 305 311 311 309 309 307 308 308 306 303 304 303
309 317 317 318 317 313 319 322 320 317 318 319 323 321 321 310 317 311 310 307 308 304 305 308 309 307 306 306 306 307 307 310 308 312 313 310 310 312 311 311 308 306 304 305 304
309 314 315 317 312 314 318 320 318 315 316 319 321 322 320 320 319 320 320 313 310 310 305 308 312 314 310 308 313 306 307 307 309 312 314 315 315 313 313 307 306 308 307 306 303
309 312 312 313 315 315 318 317 315 316 314 318 317 319 320 318 319 320 321 317 315 313 316 312 316 320 317 309 307 307 309 309 311 313 311 313 315 312 313 309 310 311 311 308 303
306 308 310 312 317 318 315 316 316 316 315 317 318 317 316 317 318 317 317 315 315 317 318 315 316 320 318 313 311 313 314 312 313 311 312 314 314 311 312 312 311 310 306 305 304
303 306 310 310 312 313 313 314 316 314 315 316 316 314 315 316 315 316 315 312 311 312 313 313 317 319 321 317 314 316 313 312 313 315 314 313 312 311 311 311 311 310 307 304 300
299 302 303 307 309 309 310 310 310 311 313 314 314 315 315 315 314 314 312 310 308 308 308 312 315 314 314 314 315 316 315 316 316 313 314 315 315 314 313 306 300 302 298 297 296
297 298 300 300 302 305 307 307 309 309 309 310 310 310 309 312 313 311 305 306 307 306 305 306 308 309 311 308 309 312 312 311 311 309 310 310 310 295 294 293 294 294 292 292 293
295 296 298 297 298 301 302 304 305 302 305 305 303 304 307 305 299 298 298 300 301 302 301 303 305 306 306 304 304 304 304 304 305 306 306 307 295 293 292 291 291 292 291 292 293

GFSSW_925_thetae_006.txt.gz
Theta_e
309 309 309 309 309 309 309 309 309 309 308 308 307 307 306 307 309 311 311 312 315 314 315 313 315 316 315 314 312 308 310 310 312 312 314 312 313 311 309 310 309 308 308 308 309
310 310 310 310 310 309 309 309 309 309 309 309 309 308 307 307 310 312 312 311 314 313 314 314 313 313 312 315 314 313 308 310 308 309 313 313 312 313 313 311 308 308 306 307 307
311 311 310 310 310 310 309 309 309 309 309 309 309 309 307 308 310 309 316 312 314 314 315 315 314 313 315 314 314 312 314 310 312 310 312 313 312 310 310 311 308 309 309 304 305
314 313 313 312 311 310 309 309 309 309 309 309 309 309 308 311 309 311 316 314 315 314 315 313 312 314 314 315 313 316 312 312 313 313 314 314 310 311 309 315 311 307 307 305 303
316 315 315 315 314 313 312 312 310 309 307 307 308 309 308 309 308 312 313 315 315 314 314 311 312 312 314 312 313 314 314 313 312 312 312 311 312 312 309 309 308 306 305 304 303
316 316 315 315 315 314 314 313 312 310 309 308 306 307 310 307 311 311 312 314 314 313 312 310 310 310 312 312 313 312 312 311 310 311 311 313 313 313 310 309 308 307 306 303 302
316 316 315 315 315 315 315 313 311 310 310 309 308 306 311 307 311 312 313 313 313 312 309 310 311 312 311 311 310 312 312 308 308 309 310 309 312 309 311 309 308 306 304 303 302
316 316 316 316 316 316 314 311 310 310 310 309 308 309 304 308 310 310 311 311 311 311 311 311 310 310 311 310 309 310 309 310 309 308 309 310 309 309 307 306 306 306 306 305 305
318 317 317 317 317 317 314 311 309 309 308 307 309 308 305 308 310 310 311 310 309 309 310 311 310 309 310 309 309 307 309 308 308 307 309 308 309 308 307 307 307 306 306 306 308
320 319 319 318 318 317 314 308 311 313 312 314 313 308 307 307 311 310 309 310 308 307 309 309 305 308 306 307 310 309 308 307 307 309 307 309 309 309 308 307 307 307 308 309 309
323 323 321 319 318 316 311 310 305 304 311 308 310 305 306 309 312 309 309 309 307 308 309 308 308 309 310 307 309 307 306 306 306 307 308 309 309 309 308 307 309 309 309 308 309
324 322 322 320 319 316 310 307 307 307 307 306 305 306 307 310 311 309 309 310 309 310 306 308 309 309 309 308 308 308 308 309 309 308 307 308 309 309 309 309 309 309 310 309 308
326 325 323 321 320 315 309 307 307 308 306 306 305 305 306 308 308 309 307 307 310 308 307 310 310 308 308 308 309 307 308 310 309 308 306 305 309 307 307 306 307 307 308 305 305
325 325 324 323 318 315 311 309 306 307 312 311 307 307 308 307 307 303 306 308 309 310 308 308 308 309 308 308 308 310 307 308 309 308 310 307 312 308 308 307 307 307 304 304 304
323 324 324 322 319 315 313 307 306 304 325 314 308 307 307 306 305 305 304 307 309 309 308 308 309 309 309 309 307 310 308 307 307 308 307 309 308 311 307 308 307 306 306 304 303
322 322 322 320 318 317 315 310 306 317 327 316 306 308 309 308 307 304 306 304 304 307 306 307 305 306 307 306 306 307 308 306 305 306 310 309 308 313 308 309 309 307 309 304 303
319 321 320 319 316 316 315 312 325 326 318 317 310 308 308 307 308 306 307 308 308 312 310 307 306 306 306 308 306 307 307 309 309 309 312 307 307 311 310 309 307 306 305 304 302
314 317 319 319 318 313 316 320 325 321 319 315 314 312 316 311 312 307 305 307 304 306 305 311 321 306 304 307 308 306 308 310 314 310 314 303 310 315 310 307 305 303 303 303 302
308 313 316 317 319 313 318 325 322 317 317 319 320 322 319 313 314 308 306 307 309 304 315 309 312 305 304 305 306 306 308 308 311 311 311 312 309 309 310 307 306 306 304 303 303
305 313 314 315 318 312 319 321 317 316 318 319 322 320 321 315 312 309 308 308 308 304 305 310 312 307 306 305 305 306 306 310 308 314 315 311 311 313 311 312 308 305 304 304 302
305 311 312 316 315 314 319 318 318 316 316 319 321 322 320 320 316 319 320 315 307 309 303 306 311 313 313 309 311 310 307 306 307 311 317 318 315 310 312 311 307 305 307 305 301
307 309 310 312 314 314 316 316 314 315 314 315 317 318 319 319 319 318 319 317 312 310 310 307 318 320 315 311 308 307 312 311 314 314 311 313 314 310 309 310 306 302 300 300 298
305 306 310 311 312 313 313 315 315 315 315 316 317 316 316 317 319 318 317 314 313 315 317 315 317 318 316 311 309 315 314 314 315 314 318 319 317 311 309 303 300 297 294 294 294
302 302 308 309 309 311 311 311 312 311 314 314 315 314 315 315 314 316 316 312 308 310 311 311 314 316 317 314 313 316 314 314 315 318 316 315 314 312 301 297 294 294 291 291 291
295 300 300 302 305 307 309 309 309 309 308 309 312 312 313 314 314 314 313 311 308 307 307 310 314 313 312 314 312 311 310 309 310 311 313 311 312 307 294 293 293 293 292 291 291
294 296 297 297 298 302 304 305 307 306 306 307 307 307 307 309 309 310 308 306 307 305 304 305 307 305 305 303 302 305 305 305 306 305 306 307 305 292 292 291 292 292 292 291 291
293 295 297 296 297 298 298 301 302 299 300 299 299 302 304 303 300 299 298 298 300 300 301 302 304 303 303 301 301 301 300 302 302 302 300 301 294 291 291 290 289 290 293 290 290

GFSSW_925_thetae_009.txt.gz
Theta_e
309 309 309 309 309 309 309 309 309 309 309 309 309 309 308 307 307 310 310 311 313 314 315 313 315 315 314 313 310 307 312 312 313 311 312 311 312 309 308 310 308 308 309 309 309
311 311 311 310 310 310 309 309 309 309 309 309 309 309 309 308 310 312 311 311 313 314 314 313 313 313 312 313 313 313 311 311 309 308 312 313 311 312 312 311 309 309 307 308 307
313 313 312 312 312 311 310 310 309 309 309 309 309 309 309 309 308 308 316 311 313 313 314 314 313 312 314 314 314 312 315 310 310 307 310 312 311 310 311 313 311 311 310 306 305
315 315 315 315 314 313 312 312 311 310 308 308 308 308 309 310 309 310 316 312 313 314 314 313 312 314 314 315 313 315 312 311 312 312 313 313 310 311 309 316 313 308 308 307 305
316 316 315 315 315 314 314 314 313 312 311 309 308 306 308 308 308 311 311 314 314 314 314 310 312 311 314 311 312 314 313 313 311 311 311 311 313 312 310 310 308 307 306 306 305
316 315 315 315 315 316 316 316 312 311 311 310 309 307 309 307 310 311 311 314 314 314 312 311 310 309 311 311 312 311 311 310 309 310 310 312 313 312 311 309 309 306 308 305 304
316 316 316 316 316 317 318 314 313 312 311 310 310 308 309 306 310 311 312 314 314 313 309 310 311 311 310 310 309 310 312 308 307 309 309 308 311 310 311 308 309 309 306 305 304
318 318 318 318 318 319 318 315 311 311 309 310 309 308 303 306 308 309 312 311 312 312 311 310 310 309 311 309 308 310 309 310 309 308 309 310 311 310 307 306 307 306 307 305 307
320 320 320 319 319 319 317 313 309 310 309 308 309 306 305 307 309 308 310 309 309 309 309 309 309 308 308 308 308 307 309 307 308 307 309 309 310 308 306 306 306 307 308 309 309
322 322 322 321 320 320 318 312 311 314 312 312 311 307 307 308 310 309 309 309 308 307 308 308 305 308 304 307 310 309 307 306 307 309 306 308 308 309 308 307 309 309 309 308 308
323 322 322 321 321 321 317 309 307 305 309 309 309 306 305 308 310 308 308 308 307 307 309 307 308 309 309 307 307 307 306 305 307 307 307 309 309 308 308 307 308 309 309 309 308
325 324 324 323 322 320 314 306 306 305 307 306 305 306 307 309 310 308 308 309 309 310 306 307 309 309 307 306 307 307 308 309 308 307 305 307 309 309 309 309 309 309 309 308 306
325 324 323 324 323 316 311 308 306 307 305 307 305 306 306 308 307 307 307 307 309 307 306 309 310 307 308 308 308 307 308 309 308 306 305 305 308 307 308 306 306 307 306 305 305
325 324 323 323 320 317 312 309 306 306 313 314 307 306 307 306 306 303 305 307 308 310 306 307 307 308 308 309 307 309 307 307 307 308 310 307 311 307 309 308 307 306 305 304 304
322 321 322 322 322 317 314 309 307 304 328 314 307 307 306 306 304 304 303 307 309 308 307 309 307 308 309 309 306 309 307 308 307 307 307 307 307 309 307 308 307 307 307 306 303
319 321 321 321 321 318 315 311 306 320 328 318 306 307 308 307 306 304 305 303 304 307 306 306 304 306 307 306 306 305 307 304 304 306 310 309 308 311 307 309 308 307 307 304 303
318 319 320 320 317 317 314 314 323 327 319 319 311 307 307 307 308 305 308 307 307 312 311 307 305 306 306 308 305 308 308 310 310 309 313 306 307 311 309 309 308 308 305 302 302
312 313 317 318 319 315 315 320 325 320 320 315 314 313 316 312 312 306 306 308 305 306 305 313 320 307 304 308 310 306 308 313 315 314 316 302 313 317 306 308 306 303 301 303 302
307 310 313 314 317 313 318 323 322 317 317 319 319 321 318 314 314 310 306 308 308 304 313 310 311 306 303 304 306 306 308 308 311 309 313 312 310 312 311 306 304 303 301 299 298
303 310 312 311 317 313 318 321 320 314 317 318 321 319 320 316 316 312 310 308 307 304 306 310 319 310 307 304 304 305 306 310 308 313 315 313 313 314 311 306 303 302 300 297 295
303 308 309 313 315 314 315 315 316 315 316 318 319 320 319 319 315 316 318 315 309 310 305 307 311 313 311 307 307 306 306 306 307 311 315 318 316 309 305 303 301 297 295 293 293
306 306 309 314 314 314 315 314 313 314 313 315 316 317 317 317 318 317 318 316 312 308 308 306 314 316 313 310 308 309 311 311 317 318 313 317 319 310 300 298 295 292 292 292 292
304 304 308 311 312 313 312 313 313 313 313 315 315 314 314 315 316 315 315 311 312 314 316 315 316 318 316 312 310 314 314 313 314 313 317 318 317 307 300 298 296 293 291 291 291
298 300 304 309 307 310 309 309 310 309 311 312 313 312 312 313 312 313 313 312 308 310 310 311 313 316 317 312 313 314 313 311 313 316 314 315 314 310 298 295 294 294 292 291 291
294 298 300 305 303 305 307 305 307 307 306 306 307 309 310 311 310 310 311 310 308 307 306 310 312 312 311 309 308 306 306 305 305 306 308 308 306 306 293 292 292 291 293 291 289
293 293 294 298 298 301 303 303 304 304 305 304 304 303 303 305 306 308 307 306 307 304 304 304 309 304 303 304 302 303 301 301 301 302 303 304 305 292 291 291 290 289 292 291 288
292 294 293 293 295 296 296 300 298 299 299 296 296 298 299 300 298 298 298 298 299 301 302 303 304 302 304 301 299 300 299 299 299 299 299 300 293 288 289 290 288 288 292 289 288

GFSSW_925_thetae_012.txt.gz
Theta_e
310 310 310 310 309 309 309 309 309 309 309 309 309 309 310 310 309 310 311 311 312 314 314 313 315 315 316 319 316 315 319 320 319 318 317 317 317 313 314 316 314 315 317 318 311
311 311 311 310 310 310 310 309 309 309 309 309 309 309 309 309 310 314 312 310 312 313 314 315 316 316 318 319 319 320 320 319 317 317 316 317 316 317 316 317 318 316 316 314 311
313 313 313 313 312 312 311 311 310 309 309 309 308 308 308 309 313 312 315 312 312 314 314 313 315 317 318 318 319 320 320 319 317 315 314 316 316 315 317 318 318 318 318 317 313
315 315 315 314 314 314 313 313 312 311 310 310 309 308 307 310 313 309 315 311 312 314 313 314 316 318 319 319 318 319 319 319 318 315 316 317 317 316 317 317 317 317 317 316 316
315 315 315 315 315 315 316 315 313 312 312 312 311 309 307 311 313 311 313 312 313 313 314 316 317 317 318 317 316 318 318 318 317 316 316 316 317 317 317 317 317 316 315 314 315
316 316 316 316 316 317 317 317 314 313 312 312 311 310 309 309 309 310 311 314 314 314 314 314 316 316 316 316 316 316 316 316 315 315 315 315 316 314 315 315 315 315 315 315 314
317 318 318 318 319 319 319 316 315 314 311 310 310 309 310 311 309 310 312 315 314 313 313 311 312 315 315 315 313 313 314 315 315 314 314 313 315 315 315 314 314 314 315 315 314
319 319 320 320 320 321 321 317 315 311 310 309 309 309 312 307 307 308 313 312 313 312 311 310 311 313 313 312 313 313 313 315 315 312 312 314 315 315 314 312 313 314 314 314 315
320 321 321 322 322 322 321 317 311 311 309 308 310 308 312 307 308 308 310 310 310 309 309 309 311 313 312 314 314 314 315 315 314 313 312 314 314 314 314 312 313 313 314 314 314
322 322 322 323 323 323 319 314 310 313 312 310 309 310 309 310 309 308 309 309 309 310 311 312 313 314 312 314 316 316 315 314 314 314 313 312 313 312 312 312 312 313 313 314 314
325 324 324 323 323 323 319 309 317 314 310 313 313 311 308 308 309 308 307 308 309 311 314 312 314 315 316 315 315 313 313 314 314 314 313 313 313 313 313 313 313 313 314 314 314
326 324 324 322 324 321 317 312 309 308 317 311 309 308 307 308 311 309 308 312 312 314 310 312 314 315 312 312 312 313 314 314 314 313 310 313 313 313 313 313 314 314 313 313 313
326 325 324 323 322 318 312 310 307 306 313 314 308 308 308 308 310 310 309 310 312 312 312 315 315 312 311 313 313 313 314 315 315 313 312 312 316 314 314 312 313 311 312 311 310
325 325 325 323 321 319 313 311 307 306 321 320 311 308 308 307 309 304 306 309 311 314 312 313 310 310 311 312 313 314 314 312 312 312 318 311 319 318 316 314 312 312 312 311 310
322 322 322 321 322 320 316 311 307 305 329 317 308 307 307 308 307 306 303 309 312 312 311 313 311 310 312 313 311 314 309 310 310 313 312 315 314 319 312 314 313 313 310 310 307
320 320 321 321 321 319 316 311 308 324 329 321 308 309 310 308 307 306 307 306 306 310 309 312 306 309 311 309 309 308 310 310 311 312 318 317 315 317 315 313 312 309 308 305 304
318 319 320 320 319 316 314 315 327 327 320 322 314 309 308 308 309 308 311 311 314 316 317 314 310 308 307 310 308 309 312 322 322 321 321 313 313 315 315 311 308 308 305 303 302
313 316 319 319 318 315 315 323 327 322 323 317 316 315 321 315 314 310 311 316 310 310 316 320 322 311 308 313 319 312 314 320 323 323 320 310 316 316 312 308 306 305 303 302 301
308 309 312 314 318 314 321 321 321 321 319 320 320 321 320 317 316 315 313 316 314 311 320 321 320 308 306 307 311 312 313 313 317 318 319 317 316 316 313 308 307 304 302 299 298
305 312 312 312 317 314 320 317 317 316 317 318 321 320 321 319 318 317 319 312 313 309 307 314 319 316 312 306 307 310 311 314 312 317 320 315 315 316 312 310 305 302 299 298 296
303 309 307 313 315 314 317 316 314 315 316 318 320 320 319 319 319 319 318 315 313 316 307 312 316 318 312 313 314 311 309 309 310 313 319 320 317 312 311 305 303 299 296 295 295
308 307 309 313 315 315 315 314 312 314 313 316 317 318 318 317 316 316 316 315 314 314 316 315 315 318 316 314 309 310 312 311 314 316 314 315 316 306 303 300 297 295 294 294 293
308 306 309 311 314 314 313 312 312 313 313 314 314 314 314 315 315 313 313 312 312 314 315 315 316 318 316 314 312 316 316 315 315 314 320 321 319 306 301 299 298 296 294 293 291
304 305 306 310 310 311 311 311 312 310 311 312 313 313 313 313 312 312 311 311 310 311 310 310 313 316 315 315 314 317 315 311 312 315 315 316 315 312 309 303 297 294 294 293 290
299 301 302 309 308 309 308 307 308 308 307 307 307 309 307 308 307 308 308 309 308 307 307 310 313 311 310 311 310 311 310 308 308 308 309 308 308 307 306 301 293 291 291 292 289
298 300 299 301 302 304 306 306 308 306 304 304 305 304 304 304 304 306 305 305 305 304 305 305 307 306 306 306 307 307 307 306 305 304 304 303 303 302 293 292 291 289 290 292 289
292 294 297 298 298 301 302 303 301 302 299 298 299 300 301 301 300 299 299 299 301 301 302 303 304 304 305 304 303 304 303 301 301 301 301 301 299 293 291 291 291 290 290 291 289

GFSSW_925_thetae_015.txt.gz
Theta_e
310 310 310 310 310 309 309 309 309 309 309 309 309 309 309 309 310 315 315 314 312 313 315 316 316 317 318 321 320 320 320 321 320 319 318 319 318 318 318 317 318 318 318 319 317
312 311 311 311 310 310 310 310 309 309 309 309 309 309 309 309 313 316 315 311 311 313 316 317 319 318 320 321 321 321 322 320 320 318 318 317 317 318 318 318 318 319 319 319 318
315 314 314 313 313 313 312 312 311 311 310 310 310 309 308 309 318 314 314 311 312 314 316 317 317 318 319 320 321 321 321 319 320 319 318 317 317 317 317 318 318 318 318 318 318
315 315 315 315 315 315 315 315 314 313 312 312 311 310 308 312 315 311 315 312 312 315 315 316 317 318 319 320 320 321 319 320 320 319 318 318 317 317 317 318 318 318 318 318 318
316 315 315 315 316 317 317 318 315 314 313 312 312 311 310 314 314 312 313 311 313 314 315 317 317 318 318 317 319 320 319 318 318 318 318 318 317 317 317 317 317 317 317 317 317
316 316 317 318 318 319 319 319 317 316 314 312 311 310 315 314 311 311 313 313 315 315 315 316 317 317 317 317 317 317 317 317 316 316 316 316 317 316 316 317 316 316 316 316 317
318 318 319 319 320 321 322 321 318 316 314 311 310 310 313 316 312 316 314 316 315 315 316 316 316 316 317 317 317 315 315 316 316 317 316 315 316 316 317 316 316 315 315 316 316
319 320 321 322 322 322 323 320 318 313 310 309 309 315 315 309 312 310 313 313 314 313 314 313 314 315 316 316 315 315 316 317 317 315 315 315 316 316 316 315 315 315 315 315 316
320 321 322 322 323 323 323 319 312 311 309 309 314 316 315 307 310 309 311 312 313 311 311 310 314 315 315 315 316 317 318 318 317 316 315 315 315 316 315 315 315 315 315 315 315
322 322 323 323 323 323 321 317 310 312 312 310 312 312 310 312 310 309 309 311 312 313 313 313 314 315 315 316 319 320 320 319 318 318 316 317 317 316 316 316 316 316 316 316 316
325 325 324 323 324 323 320 315 321 320 314 317 319 314 317 310 309 310 309 310 312 314 315 314 315 316 318 318 317 317 317 318 317 317 318 317 316 316 316 317 317 317 317 316 314
326 325 324 323 323 322 318 319 313 310 320 321 319 316 311 310 313 311 309 312 313 315 314 314 315 316 317 315 315 316 317 317 317 317 314 315 316 316 317 316 317 316 315 314 313
324 325 324 323 323 320 316 313 310 309 317 321 315 314 313 311 316 315 311 313 314 315 315 317 319 316 315 316 316 316 316 316 317 316 316 317 318 320 318 319 317 314 313 312 309
325 325 325 323 322 321 319 314 310 308 322 322 316 311 309 310 313 307 309 312 314 317 318 317 316 314 314 315 315 316 316 315 315 316 320 316 320 318 319 318 314 313 312 309 308
322 323 324 322 324 323 314 313 310 310 327 319 311 309 310 310 309 309 306 311 314 315 314 316 314 313 315 315 315 316 312 313 314 317 318 318 320 319 318 317 316 312 310 308 307
321 321 321 321 321 318 318 313 312 324 328 323 311 312 312 310 310 309 310 309 309 312 313 314 309 311 314 312 312 311 312 314 315 317 322 319 318 318 316 315 312 310 308 307 306
319 319 320 321 321 318 316 318 329 329 322 323 316 311 311 312 312 311 313 313 317 319 319 318 316 312 309 313 311 311 314 322 323 325 326 319 317 317 316 315 312 310 307 305 304
317 319 319 319 317 316 318 324 329 323 323 320 320 320 322 320 317 314 316 318 317 314 318 320 320 316 311 314 316 317 318 322 324 325 325 320 320 318 313 310 309 307 305 303 302
309 315 315 319 319 315 321 324 324 321 320 320 319 321 320 320 318 319 319 318 317 317 318 319 319 317 311 312 312 315 316 314 319 319 322 320 317 315 314 310 308 305 303 301 300
307 311 313 311 317 317 320 319 319 316 318 319 321 320 321 320 320 319 319 316 317 312 311 316 318 315 314 310 313 313 316 321 318 322 320 315 315 315 314 314 307 304 301 300 299
305 309 307 312 315 317 317 315 315 314 317 319 319 319 318 318 319 320 319 317 315 314 312 314 317 317 315 315 315 314 313 312 313 314 318 319 317 312 313 310 306 301 299 298 297
308 310 310 314 315 314 316 313 311 314 314 315 316 316 317 317 316 317 317 315 314 314 316 314 315 316 314 313 314 315 315 315 319 319 316 316 317 313 307 304 301 298 297 296 295
307 309 310 312 314 315 313 312 312 313 314 315 316 315 314 315 315 314 313 312 312 312 314 314 315 315 313 309 313 315 314 316 316 316 318 319 317 309 304 303 301 300 298 296 293
306 306 310 310 312 312 312 312 312 312 312 312 312 311 312 312 311 311 310 311 312 311 310 311 311 313 313 310 311 313 313 315 315 315 315 315 312 310 310 307 304 301 297 296 293
304 303 306 309 311 311 309 308 309 310 309 309 309 309 309 309 308 309 308 307 307 308 307 308 310 308 308 307 307 308 308 307 308 309 310 309 309 308 306 305 301 297 294 294 292
301 302 302 306 307 309 309 308 308 307 306 306 306 306 307 308 306 305 304 304 304 302 304 304 306 305 304 303 303 305 305 305 306 307 307 305 305 303 297 295 295 293 292 292 293
296 297 301 302 304 307 309 307 305 306 303 303 303 304 303 303 302 301 301 301 303 303 301 301 301 302 302 301 301 302 301 301 302 303 303 303 301 295 296 294 293 293 291 290 291

GFSSW_925_thetae_021.txt.gz
Theta_e
310 310 310 310 310 310 309 309 309 309 309 309 309 309 309 309 309 312 319 316 315 313 316 315 316 317 318 318 318 315 313 315 318 316 315 315 315 314 314 315 314 314 314 314 318
311 311 311 311 312 311 311 311 311 311 311 311 311 310 310 309 310 316 316 315 313 312 316 316 316 317 314 319 317 314 314 317 316 315 316 315 314 313 313 310 310 311 311 314 317
314 313 313 313 314 314 314 314 314 314 313 313 312 312 311 309 317 316 314 312 310 313 317 317 317 316 317 317 318 318 315 316 317 317 316 316 314 313 312 313 311 312 312 311 314
315 315 315 315 316 317 316 316 318 318 315 314 313 312 311 310 312 314 314 312 311 314 316 316 315 316 316 317 317 318 316 316 316 315 315 316 316 314 314 314 311 310 310 311 310
316 315 316 316 318 318 319 320 321 320 318 316 315 311 311 316 314 315 312 311 312 315 315 315 315 315 316 315 313 316 316 316 315 313 312 313 313 314 313 312 310 310 310 309 309
316 316 317 318 319 321 322 322 322 321 320 317 315 311 314 313 313 315 314 311 313 314 315 314 315 314 314 315 314 314 313 313 312 312 312 313 312 314 312 310 309 309 308 307 307
317 317 318 320 322 322 323 323 322 321 317 313 311 310 316 312 315 317 315 314 315 314 314 315 315 315 314 313 314 313 313 311 312 312 312 311 313 313 311 309 309 309 308 308 306
317 318 319 321 322 323 323 323 322 319 312 309 309 315 310 311 313 314 315 314 315 315 314 314 314 314 314 313 313 314 312 313 313 313 313 311 312 312 310 309 310 310 307 305 304
318 319 321 322 323 323 323 322 320 313 311 311 316 317 314 308 310 313 312 313 313 312 312 313 314 313 313 312 312 312 312 313 314 313 312 312 311 311 310 311 310 307 306 305 303
319 320 322 323 323 323 322 320 317 312 317 314 314 312 310 311 310 310 311 313 312 311 311 312 310 311 309 311 312 313 314 314 314 314 313 313 310 309 310 310 311 305 304 304 303
321 323 324 324 323 323 321 318 318 318 315 317 316 311 311 310 310 310 310 311 312 312 312 311 310 311 310 310 311 312 314 314 312 312 313 313 312 311 311 310 310 305 305 304 303
322 323 324 324 323 323 320 316 314 314 319 317 318 318 313 311 312 310 310 310 311 312 311 311 312 311 311 312 313 313 314 313 312 313 314 312 312 311 311 312 309 306 305 304 302
322 322 323 324 324 322 318 315 314 311 315 317 315 316 311 313 314 311 309 309 311 312 311 312 313 313 314 314 314 314 314 313 313 312 311 313 312 313 312 307 307 305 304 303 302
322 322 323 324 323 322 318 317 314 310 317 319 316 309 309 310 312 307 309 311 312 312 311 312 312 313 313 315 313 315 312 313 313 312 313 313 314 313 312 308 307 304 302 301 300
323 324 324 324 323 322 318 318 313 311 324 315 311 309 309 311 309 309 308 309 313 313 312 316 312 312 313 313 311 313 310 311 312 311 313 313 314 313 310 310 307 304 302 300 299
324 325 323 323 323 321 319 317 314 322 328 315 309 311 310 309 309 308 308 307 308 311 311 311 308 310 311 311 311 309 310 310 310 311 314 314 315 314 310 310 307 304 302 300 298
324 324 321 321 322 321 319 316 326 327 323 316 312 310 311 311 309 310 309 308 311 314 313 312 311 310 310 311 310 310 311 316 315 313 316 314 314 314 310 308 307 303 300 298 297
322 321 321 321 318 317 316 323 327 326 323 316 315 314 319 310 312 310 311 313 310 314 313 317 318 311 309 311 312 311 315 316 318 315 312 313 315 314 305 303 301 300 298 297 296
319 318 319 318 316 316 320 324 325 322 320 320 319 320 319 319 317 314 313 315 315 311 316 315 316 311 310 311 312 313 314 313 315 306 312 314 313 308 304 302 300 299 298 297 296
316 314 315 318 316 317 321 323 321 319 317 318 322 320 318 318 318 315 316 314 313 310 312 314 316 313 310 310 311 314 313 316 314 313 314 314 313 312 307 303 300 299 297 296 295
312 313 311 315 316 318 320 320 318 315 315 318 318 319 317 317 317 317 317 315 312 311 312 313 315 314 312 313 313 311 311 312 314 313 314 310 310 308 307 302 300 298 296 295 293
309 314 309 313 313 314 316 315 313 313 314 316 315 316 316 316 317 316 317 316 311 311 314 313 314 311 313 310 308 310 311 312 313 312 309 313 313 305 302 301 299 298 297 294 293
309 310 310 313 315 314 314 315 314 313 313 314 315 314 314 314 316 314 315 310 311 312 314 313 311 305 305 306 311 313 311 310 311 312 313 314 309 303 300 299 298 297 296 295 292
307 310 310 311 311 312 314 314 314 311 311 312 312 312 313 314 312 312 312 311 309 310 310 310 311 305 306 301 307 306 305 304 308 304 303 305 304 303 303 302 301 300 299 297 293
305 307 308 309 312 312 311 311 312 312 310 310 311 311 312 314 312 312 310 310 308 310 308 307 304 307 307 307 305 305 304 303 303 303 304 302 301 301 300 297 296 292 297 295 293
302 303 302 306 308 312 311 310 311 309 311 311 311 310 310 312 308 304 305 305 305 306 306 305 300 302 298 302 302 302 301 301 301 300 299 299 298 298 294 294 293 291 290 290 289
297 297 300 303 303 309 309 310 309 308 304 305 308 308 306 302 300 299 299 299 300 301 300 299 296 291 294 298 296 293 296 296 297 297 297 297 296 290 294 293 289 289 290 289 289

GFSSW_925_thetae_024.txt.gz
Theta_e
309 309 310 310 310 309 309 309 310 310 310 310 310 310 310 309 309 310 314 315 314 313 315 315 315 316 317 316 316 311 311 313 316 315 314 313 313 312 311 313 311 313 312 312 315
310 310 310 310 310 310 310 311 312 312 312 312 312 312 311 310 310 315 315 314 314 312 315 315 315 315 313 317 315 311 310 313 314 315 316 315 314 313 312 309 310 310 310 312 315
312 312 312 312 313 314 314 314 315 316 315 314 313 312 312 310 314 315 315 314 312 313 316 316 316 315 316 316 317 315 313 314 315 315 314 315 313 313 313 313 311 310 310 310 312
314 313 314 314 315 316 317 318 318 319 319 317 315 313 312 311 312 313 314 310 311 314 316 315 314 315 315 315 315 317 315 315 316 315 314 315 314 313 313 313 311 309 308 308 307
315 315 315 316 317 318 319 321 322 321 320 319 317 314 311 314 312 315 312 311 312 314 314 314 314 314 315 314 313 315 315 315 314 312 312 312 312 312 312 310 308 307 306 304 303
315 315 316 317 319 321 321 322 322 322 321 318 316 312 313 312 314 314 313 311 312 314 314 314 313 312 313 314 313 313 313 312 311 311 311 312 311 312 311 310 308 307 304 303 303
316 316 317 318 320 322 322 323 322 321 319 313 310 311 316 311 314 317 316 312 314 314 313 314 314 314 313 313 313 313 312 310 310 311 311 310 313 312 310 308 307 305 302 302 301
316 317 318 320 322 322 322 323 322 321 313 310 309 314 308 311 314 315 315 315 314 314 314 314 314 313 313 312 311 313 311 312 312 312 312 311 312 311 309 309 307 302 301 301 301
317 318 319 321 322 323 323 322 321 318 311 311 315 315 311 309 311 313 313 313 313 312 312 313 313 312 311 310 309 310 310 311 312 312 312 311 311 310 309 310 304 302 302 301 300
317 318 320 322 323 323 323 321 318 314 316 313 314 313 310 309 310 310 311 312 311 310 310 311 308 309 307 308 309 311 312 312 313 313 312 312 310 309 309 308 305 302 301 300 300
318 319 321 323 324 323 322 319 317 317 317 315 313 311 310 310 310 310 311 311 311 310 309 310 309 308 308 309 308 311 311 312 311 311 312 311 311 310 309 309 304 303 302 301 300
319 322 323 323 324 323 322 316 315 314 319 316 315 314 311 310 312 309 310 310 311 310 310 310 310 309 309 309 310 310 312 312 311 310 312 311 311 310 309 307 305 304 302 301 299
321 321 322 322 323 324 321 316 316 313 316 316 315 318 312 311 314 312 308 308 310 309 310 311 313 311 311 311 312 312 312 312 313 311 310 312 311 312 306 305 305 303 301 300 298
320 321 321 322 323 322 317 317 315 313 317 318 315 310 309 310 313 307 308 309 310 311 309 310 310 312 312 314 313 315 311 312 312 311 313 311 312 311 309 306 304 302 299 298 296
320 321 322 323 322 320 318 317 315 312 325 316 311 309 307 312 308 307 307 309 312 312 311 314 313 312 313 313 311 314 310 311 311 310 311 310 310 309 307 308 305 301 299 297 296
321 322 323 323 322 321 317 317 314 321 328 315 308 310 308 308 308 307 307 307 308 311 310 310 308 309 310 309 310 309 310 309 308 309 312 311 311 312 309 309 304 301 299 297 296
322 323 323 323 322 321 318 317 324 327 321 315 311 310 310 309 308 309 308 308 309 311 312 312 310 310 309 310 309 308 311 315 314 312 315 312 312 312 306 306 304 301 298 296 295
323 323 323 323 322 320 318 323 327 324 321 313 310 309 311 309 309 309 308 309 307 311 311 316 318 310 308 310 311 309 312 314 314 314 313 310 313 311 302 301 300 299 297 296 295
323 321 318 320 319 318 322 326 325 324 321 317 318 319 318 313 312 310 309 310 312 308 316 314 316 309 309 310 311 312 314 312 313 299 309 312 310 305 302 300 298 297 297 295 295
318 317 317 319 316 317 324 325 322 320 317 318 321 318 318 319 317 313 314 312 315 309 311 313 316 312 310 310 309 311 311 315 311 311 311 311 312 312 304 301 299 298 297 295 293
317 317 313 316 315 319 325 322 320 316 316 317 319 320 317 316 317 315 316 314 310 310 311 312 314 313 311 312 312 311 311 312 312 309 309 307 309 306 305 302 300 298 297 294 293
311 317 312 314 318 317 319 318 314 314 314 315 315 315 315 315 316 315 316 314 308 309 313 312 313 310 313 309 307 309 310 310 310 309 308 310 311 305 304 300 299 297 296 294 293
312 311 310 312 319 317 315 316 314 313 314 316 316 315 314 315 317 314 315 310 310 311 313 312 311 303 306 307 310 310 310 309 309 306 305 310 309 302 301 300 298 298 295 294 292
308 311 311 312 311 316 317 316 317 314 314 313 314 312 313 313 312 313 312 310 309 311 310 311 309 308 313 304 307 306 305 304 306 303 303 308 305 303 301 301 300 299 296 293 292
306 309 309 312 313 313 314 315 316 313 313 312 311 312 313 313 312 312 309 310 308 309 308 309 313 307 306 307 306 306 306 303 305 303 303 301 299 300 299 297 296 294 294 296 294
305 304 304 306 311 313 313 312 313 314 312 311 311 311 310 312 311 310 310 309 308 307 307 304 302 303 299 301 303 303 303 302 302 302 301 302 302 300 295 294 293 290 291 296 292
298 298 302 305 306 310 311 310 311 310 306 307 309 308 310 310 303 300 300 301 303 305 304 303 298 296 299 296 295 292 295 298 298 297 297 296 295 291 294 293 291 290 289 288 287

GFSSW_925_thetae_027.txt.gz
Theta_e
308 309 309 309 309 309 309 310 310 311 311 311 311 311 311 311 310 310 311 314 314 312 314 314 315 316 316 315 314 308 309 311 315 314 314 312 313 312 310 311 309 311 312 311 313
309 309 310 310 310 310 310 311 312 314 314 314 313 313 312 312 311 314 314 315 313 313 314 314 314 315 312 316 314 309 307 310 312 313 315 314 313 313 312 310 311 310 309 311 312
309 309 310 310 311 312 313 315 316 317 318 317 315 314 312 312 313 313 315 314 313 313 315 315 315 314 315 315 316 313 311 312 315 313 314 314 313 312 312 312 310 311 308 307 307
309 311 312 312 314 316 317 319 320 320 320 319 318 316 312 312 317 313 313 310 310 314 316 315 313 314 313 315 314 317 315 314 315 313 313 314 313 313 312 312 309 307 305 303 302
312 313 314 314 316 317 319 321 321 322 321 320 318 315 311 313 312 315 312 311 311 314 315 313 313 313 314 313 312 315 314 314 313 311 311 312 312 312 310 308 306 304 304 302 301
315 315 315 315 317 319 321 322 322 322 321 320 316 313 312 312 314 314 312 311 312 314 313 313 312 311 313 313 312 312 313 311 310 310 310 312 311 311 311 306 304 304 301 300 300
316 315 315 316 318 320 322 322 322 322 321 318 311 311 314 310 314 317 316 312 313 313 312 313 313 313 312 312 311 312 312 309 309 310 310 308 312 311 310 304 303 302 299 300 299
316 316 316 317 319 321 322 322 322 321 319 312 309 313 309 311 314 315 315 314 314 314 314 313 313 312 313 311 309 311 309 310 311 311 311 311 313 311 309 304 303 300 299 299 298
317 316 317 318 320 322 323 322 322 319 313 312 314 313 312 309 312 314 314 312 312 312 312 313 312 309 309 308 308 308 309 310 311 311 311 310 311 310 307 305 302 300 299 299 298
317 317 317 319 321 323 323 322 319 315 313 313 314 313 310 309 309 311 311 312 310 309 310 309 306 308 307 306 312 309 310 310 311 312 311 312 310 308 308 308 302 300 298 298 298
317 317 318 320 323 323 323 320 315 316 317 314 312 312 309 309 309 309 311 311 310 308 308 309 308 308 308 308 308 309 310 311 310 310 312 310 309 309 308 304 301 300 299 298 297
317 317 319 322 323 323 323 317 316 316 319 315 314 310 310 309 311 308 310 309 309 309 308 309 308 308 307 307 309 309 311 310 310 309 310 310 311 309 305 304 302 301 299 298 296
317 318 321 321 322 323 323 318 317 315 317 316 315 317 312 310 313 312 308 308 310 308 309 310 311 309 309 310 310 310 310 311 312 311 309 311 310 311 305 303 302 300 298 296 295
318 320 320 321 322 323 319 320 317 313 318 318 315 312 309 311 314 307 307 308 309 310 308 309 309 312 310 312 310 313 310 311 312 311 313 309 313 309 306 304 302 299 297 295 294
319 320 320 321 321 318 320 318 316 312 324 316 312 308 307 314 308 307 307 309 310 310 309 313 312 310 312 311 311 313 309 310 310 309 309 309 310 308 306 306 302 299 297 295 294
319 320 321 322 322 321 317 317 314 321 325 314 308 309 309 307 307 306 307 306 308 311 310 311 308 309 310 308 309 308 308 309 307 308 312 310 310 310 309 308 302 299 297 295 294
320 320 321 322 322 322 316 315 324 327 319 315 310 308 308 307 308 308 307 308 309 313 313 312 311 309 308 310 308 308 311 314 314 312 316 310 310 310 306 303 303 300 297 295 293
321 321 321 322 322 322 314 322 327 324 321 311 309 309 310 308 308 308 306 309 305 309 309 314 317 309 307 309 310 307 311 314 315 313 312 309 314 312 301 299 300 298 297 294 293
321 322 322 322 323 319 321 328 326 325 320 313 314 311 310 309 309 308 307 307 307 306 315 314 316 308 307 308 309 310 312 310 311 296 308 312 309 304 300 299 298 297 296 295 294
320 321 321 321 322 317 325 328 323 321 319 315 315 315 313 316 314 308 308 309 313 306 310 313 316 311 309 308 309 310 310 314 310 311 313 311 310 311 303 301 299 297 296 295 294
320 320 317 319 317 320 327 326 322 318 316 318 316 318 316 317 315 311 315 313 310 309 309 311 314 313 310 310 311 311 312 311 311 309 309 306 309 304 305 302 300 298 297 295 293
313 322 312 315 319 321 326 321 318 317 314 317 315 317 317 314 317 315 316 313 308 309 312 311 311 309 312 308 306 308 310 310 314 311 307 308 311 303 302 301 300 298 297 294 293
313 312 310 313 324 318 316 318 317 314 316 317 318 316 314 315 318 313 312 310 307 310 312 312 311 306 311 309 308 309 308 308 306 303 302 310 309 302 300 299 299 298 296 294 293
310 314 311 311 312 320 319 318 318 314 314 316 316 313 315 316 315 315 312 310 308 311 310 312 311 313 317 310 308 308 308 305 306 309 309 310 309 303 302 301 299 297 296 295 293
307 311 310 314 314 315 317 317 319 316 314 313 313 316 317 318 316 315 310 310 308 309 308 310 314 308 308 304 306 306 305 303 304 306 309 307 305 303 301 299 298 297 296 295 294
305 306 305 309 312 315 316 316 317 317 314 316 316 313 315 317 314 312 310 309 309 306 307 303 307 305 306 303 306 308 306 305 306 305 303 302 303 299 296 294 293 292 291 294 295
298 299 304 306 309 314 313 315 315 315 309 309 312 311 313 313 307 301 304 304 306 306 304 303 302 301 311 297 298 300 297 302 302 301 302 303 301 291 294 293 292 291 289 289 291

GFSSW_925_thetae_030.txt.gz
Theta_e
308 309 309 309 309 309 310 310 311 312 312 313 313 313 313 312 312 312 310 313 314 312 313 314 315 315 316 314 311 306 306 309 313 311 313 312 313 311 309 310 309 309 310 308 310
308 309 309 310 310 310 311 312 313 315 317 316 316 315 314 313 313 313 313 315 313 312 313 313 313 314 311 315 312 307 305 308 310 312 313 313 313 312 312 310 311 310 308 307 307
308 308 309 310 310 311 313 315 315 318 319 319 318 317 314 312 312 311 314 314 313 313 314 315 314 313 313 314 314 311 308 310 314 312 313 313 313 311 312 312 310 310 306 302 303
308 309 310 310 311 313 315 317 319 319 320 320 319 317 314 312 318 313 312 311 311 314 315 314 311 313 311 314 313 315 313 312 314 313 313 313 312 312 311 310 307 302 302 301 300
309 310 311 312 313 316 318 320 321 321 321 320 319 316 312 311 312 315 312 310 311 314 314 312 313 312 312 312 312 315 314 312 312 311 310 310 311 312 310 305 302 302 300 299 298
311 313 314 314 315 317 319 321 321 321 321 321 317 313 311 312 314 314 312 311 312 314 313 312 311 311 312 312 312 311 311 310 309 310 309 311 310 310 306 302 302 301 299 298 298
313 314 315 315 316 318 320 321 322 322 321 320 314 312 311 311 313 316 315 311 312 313 311 312 312 312 311 311 310 310 312 308 309 309 310 307 312 311 305 302 301 299 297 297 297
315 315 315 315 317 319 321 322 322 322 320 314 310 312 311 311 313 316 314 313 313 313 313 312 312 310 311 309 307 310 307 310 310 310 310 310 313 311 304 303 301 299 297 297 296
316 316 316 316 317 320 322 322 322 319 316 313 314 311 312 310 313 314 314 313 312 312 312 312 310 308 308 308 308 306 311 309 309 310 310 310 312 310 304 303 300 298 297 297 296
317 316 317 316 318 320 322 322 320 316 313 313 314 313 310 309 309 311 312 312 310 309 309 309 305 307 306 307 313 311 309 308 309 311 310 310 310 308 305 303 300 298 297 296 295
317 317 317 317 318 321 323 322 315 315 316 314 313 313 309 308 309 308 310 310 308 307 309 308 308 309 308 307 308 308 308 310 309 309 311 310 309 308 304 301 299 298 297 295 294
318 317 317 317 320 322 322 318 316 315 318 315 313 309 310 308 309 307 310 309 308 308 307 307 308 308 307 307 308 309 309 308 308 308 309 309 309 309 304 303 301 298 297 295 294
318 317 317 318 321 322 322 320 317 315 317 316 314 315 314 309 312 309 307 307 308 308 307 308 311 306 307 307 308 307 308 309 310 310 309 309 309 307 303 301 300 298 296 295 293
318 318 317 320 322 321 321 323 320 314 319 318 315 313 309 310 314 307 307 308 308 309 307 308 308 311 309 309 307 309 308 309 311 312 315 308 313 309 305 303 300 297 295 294 293
318 318 317 321 321 319 321 321 317 313 324 315 313 308 307 315 309 307 306 308 309 309 308 313 310 310 311 311 309 312 309 309 310 310 309 309 310 308 305 305 302 298 295 294 292
318 318 318 321 321 320 318 316 314 321 325 316 308 308 310 307 307 305 307 306 307 309 309 310 307 308 310 308 309 306 308 307 306 307 311 310 310 310 307 307 302 298 296 294 292
319 318 319 321 321 321 314 314 323 327 318 315 310 307 310 307 307 307 307 308 310 314 314 312 310 308 307 308 307 307 309 314 314 313 316 309 308 309 306 304 303 300 296 294 292
320 319 319 320 321 321 313 322 327 324 320 309 309 307 310 307 307 307 307 309 307 309 310 314 316 309 307 308 309 307 310 315 317 314 312 309 313 312 301 299 298 299 296 294 292
320 320 319 320 321 322 318 327 327 323 319 310 310 309 309 308 308 308 306 307 307 305 314 312 315 308 306 307 308 308 310 309 310 296 309 312 310 304 300 300 298 296 295 294 292
320 319 320 320 321 318 322 326 324 320 317 311 318 312 311 311 309 307 307 306 309 305 309 312 317 309 307 308 308 309 308 313 309 311 312 313 310 312 305 302 298 297 296 294 293
320 321 321 321 320 320 325 323 324 319 316 315 318 315 311 314 311 308 309 310 309 307 308 309 314 312 309 309 310 311 312 310 310 309 311 308 311 303 305 301 299 298 297 295 294
317 322 317 321 323 322 325 324 320 320 316 316 315 316 315 315 313 310 312 312 308 308 310 310 311 310 311 307 306 308 310 309 314 311 306 308 314 301 302 300 300 299 297 295 293
315 313 312 318 327 325 322 323 321 318 318 317 317 317 315 315 319 313 313 310 308 311 312 311 311 306 310 309 307 309 307 307 306 304 305 315 312 302 299 299 298 297 295 294 293
312 316 312 312 313 320 323 323 322 315 317 317 317 315 315 316 317 318 313 310 308 309 311 312 309 311 316 311 309 309 308 306 309 313 313 312 311 306 303 301 298 297 296 294 293
310 313 312 315 316 315 319 320 321 319 315 316 317 318 319 319 318 317 311 309 308 309 309 311 312 309 309 306 306 308 308 305 307 309 313 311 307 304 304 302 299 297 296 295 294
308 308 305 311 312 314 316 318 320 317 316 316 317 316 318 319 317 317 313 311 311 307 308 305 312 308 307 304 306 307 305 304 306 304 304 303 303 299 299 299 296 295 295 293 292
298 299 305 308 310 315 315 313 315 316 311 312 314 315 317 317 311 305 308 309 310 309 308 306 304 305 314 299 301 308 305 305 304 303 305 305 306 294 296 295 293 292 290 290 292

GFSSW_925_thetae_033.txt.gz
Theta_e
308 308 309 309 309 309 310 310 311 313 315 316 315 315 314 314 314 314 310 312 314 312 313 313 315 315 315 312 309 304 307 309 312 311 313 311 313 310 308 310 309 308 306 303 305
308 308 309 309 310 310 311 313 313 316 317 318 317 317 315 314 314 312 313 314 313 312 313 313 313 312 311 314 311 307 306 308 309 309 312 312 312 311 311 310 310 309 304 304 304
309 309 310 310 311 312 313 316 317 317 319 319 319 318 316 313 313 311 313 313 312 313 313 314 314 312 312 313 313 309 308 308 312 311 312 312 312 310 312 311 310 310 304 301 301
308 309 309 310 311 314 316 318 319 319 320 320 319 318 315 312 318 313 312 312 312 314 315 313 311 311 310 312 313 314 312 311 313 312 312 313 311 312 311 309 303 302 300 299 299
308 308 309 310 312 314 317 319 320 320 320 320 320 317 313 311 312 315 312 310 311 314 313 311 312 311 311 312 312 315 313 311 312 311 311 309 311 311 308 302 301 300 299 298 298
308 309 310 312 313 315 317 319 320 321 321 320 320 315 311 314 313 314 312 310 311 314 312 312 310 310 310 311 311 310 311 310 309 309 309 310 309 309 304 301 300 299 298 297 297
312 311 313 314 314 315 318 320 321 321 321 320 317 312 310 313 314 315 313 311 311 313 311 312 311 312 310 310 309 309 311 308 309 308 309 307 310 309 303 302 300 299 297 297 296
313 314 314 315 315 316 318 320 321 321 320 316 311 312 312 311 312 316 313 312 312 312 312 312 312 309 310 307 306 309 307 312 310 310 309 309 314 307 302 304 301 299 297 297 295
313 314 315 315 315 316 319 321 322 321 317 314 314 310 313 310 313 314 313 312 312 311 311 311 310 308 308 308 309 306 312 309 310 309 309 310 313 307 303 303 301 299 298 297 295
315 315 316 316 316 317 319 322 321 318 315 313 314 313 310 310 309 312 312 311 309 309 310 308 305 307 305 308 313 311 310 308 309 310 309 309 309 306 304 303 300 298 297 296 295
316 317 317 316 316 318 321 322 316 314 315 314 313 314 309 308 308 309 310 309 307 306 309 307 309 310 309 307 309 308 308 309 308 308 311 310 309 309 303 300 299 298 297 295 294
317 318 317 317 317 318 321 318 316 314 318 314 314 310 309 308 308 307 309 309 308 308 306 307 309 308 307 307 308 307 308 308 307 307 309 309 309 307 304 302 301 298 296 295 294
317 318 317 317 317 321 321 321 317 315 317 317 313 314 313 308 310 307 307 306 307 306 306 307 310 305 307 306 308 307 308 307 310 309 308 309 310 307 303 301 299 297 295 294 293
318 319 318 317 319 320 320 320 322 315 318 318 315 315 309 308 313 306 307 307 307 308 306 307 307 309 307 308 306 308 306 307 309 311 314 308 315 309 305 303 300 297 295 294 293
319 319 318 317 320 320 320 320 322 313 322 315 313 308 308 315 309 307 306 307 308 309 309 315 308 309 311 310 307 311 306 307 309 310 310 309 311 309 305 306 302 298 295 294 292
319 318 318 317 319 320 320 319 314 320 324 316 308 308 311 308 306 305 307 305 306 308 308 310 307 307 309 307 307 305 307 307 306 307 311 311 312 311 308 307 302 299 296 294 292
319 319 318 317 320 321 315 313 323 326 316 314 312 308 312 308 307 307 307 308 311 314 313 311 309 307 306 307 306 306 309 314 315 314 316 307 308 310 307 304 303 301 297 294 292
320 320 319 318 319 320 313 321 327 322 319 308 308 307 313 308 308 307 307 309 307 309 311 315 316 308 305 308 309 307 310 315 316 315 313 308 312 313 303 299 299 299 297 294 292
321 320 318 318 320 319 318 326 324 321 318 310 308 310 309 307 308 306 307 309 310 307 315 314 314 307 306 305 307 308 311 309 308 295 309 312 310 307 301 300 298 297 296 295 293
319 319 319 318 320 318 321 323 322 319 312 310 318 312 311 308 308 306 306 305 308 307 308 311 316 309 306 307 308 308 307 312 309 313 313 312 312 314 306 303 298 297 297 295 293
320 321 319 319 318 321 323 320 321 318 313 314 316 316 310 309 308 307 308 307 305 306 308 309 314 311 308 308 310 311 311 309 310 311 314 311 312 304 306 303 300 298 297 296 294
318 324 319 319 321 323 324 319 318 321 317 317 315 318 313 311 309 308 309 309 305 306 310 309 312 311 310 307 305 308 309 310 314 311 306 309 314 302 302 301 300 299 297 295 295
317 317 314 319 325 324 322 321 320 319 321 321 320 316 314 314 316 309 308 308 307 308 310 310 312 311 313 310 306 308 307 307 306 305 307 312 313 301 299 299 298 298 297 296 294
312 315 313 312 313 322 322 323 323 320 320 319 318 316 315 318 315 316 311 309 306 309 311 311 311 314 321 315 310 309 307 306 310 307 311 313 312 304 302 301 298 297 296 294 294
312 314 313 318 317 316 316 322 323 323 319 318 318 320 320 322 319 319 312 309 308 310 310 312 315 308 310 308 308 309 308 307 310 311 313 313 310 308 304 302 300 298 295 294 294
310 310 307 312 315 316 315 316 319 322 317 319 322 321 321 322 321 322 315 312 314 307 309 308 317 309 309 305 306 307 306 307 308 309 309 308 307 303 302 298 298 297 296 295 294
299 300 307 310 311 316 317 317 315 316 313 313 317 317 319 319 312 307 311 311 311 310 310 310 309 312 320 303 307 313 308 306 305 303 308 308 309 297 299 298 297 296 295 295 292

GFSSW_925_thetae_036.txt.gz
Theta_e
308 308 308 309 309 309 310 310 311 314 316 317 317 316 316 315 314 314 313 313 313 313 313 313 314 315 317 318 314 312 316 318 319 318 318 316 316 314 313 315 314 312 311 308 306
308 308 308 309 309 310 310 312 314 314 317 318 318 317 317 315 314 314 313 314 313 312 313 314 316 315 318 318 317 316 316 315 316 316 318 316 316 316 315 316 314 313 309 306 306
308 308 308 309 309 311 313 314 316 316 318 319 319 318 317 314 316 313 313 314 312 313 313 314 314 315 316 317 318 315 315 312 314 315 316 317 316 315 316 316 315 315 311 307 307
309 308 308 309 309 311 314 316 317 317 319 320 319 318 316 313 320 312 312 313 312 313 314 314 315 315 316 316 317 317 315 315 316 316 315 317 316 316 315 314 308 307 306 306 306
310 309 309 309 311 312 314 317 319 319 319 320 319 318 314 316 316 314 312 311 312 314 315 315 314 315 315 315 317 318 317 315 315 314 315 313 316 315 313 308 306 305 305 305 304
310 311 311 311 312 314 315 317 319 320 320 320 319 317 313 320 314 314 312 310 312 314 313 313 314 314 315 315 315 314 314 315 314 313 313 314 314 313 309 307 306 306 305 304 302
312 311 311 312 314 314 315 318 320 320 320 320 317 314 314 319 315 315 312 311 312 313 314 312 313 315 314 315 312 313 315 315 314 312 313 312 313 313 309 307 307 305 304 302 301
313 313 312 313 314 314 316 318 320 321 320 317 313 312 319 312 313 316 313 312 312 312 312 312 312 313 314 311 312 314 314 319 314 313 311 313 320 312 308 308 308 306 304 302 300
313 313 313 314 315 315 316 318 321 321 319 315 315 312 319 310 314 315 313 312 311 311 311 311 312 313 313 315 316 314 320 317 317 312 313 314 319 312 308 309 309 306 304 302 301
314 313 314 315 315 315 316 320 321 320 316 314 314 316 312 312 310 313 312 311 312 312 313 314 313 315 314 316 321 320 317 316 318 314 313 315 316 311 308 309 309 306 304 302 301
315 315 315 316 316 316 317 321 319 319 316 319 318 317 311 307 309 310 310 310 311 313 315 312 316 317 317 316 316 316 316 318 315 312 314 316 316 314 310 308 308 306 304 302 300
315 315 316 317 317 317 319 322 318 315 321 317 316 312 309 308 310 309 309 313 313 315 312 313 316 317 312 312 313 313 316 317 314 311 313 315 315 315 310 310 309 306 304 302 300
316 315 316 317 317 317 319 321 318 315 322 320 317 317 313 308 313 311 310 310 312 312 313 317 315 311 312 311 313 313 315 316 316 312 311 313 316 316 311 307 305 304 303 301 301
316 316 316 318 317 318 320 319 319 314 322 321 318 318 310 311 313 307 309 310 309 313 312 313 311 310 311 313 313 316 312 312 313 314 319 313 323 317 314 310 305 303 302 301 299
317 317 317 318 319 319 319 319 319 316 326 319 316 309 309 316 312 308 306 310 312 311 312 316 311 312 314 314 311 317 310 312 312 315 315 315 318 320 310 312 308 304 302 301 299
318 318 318 318 319 319 319 320 318 323 326 319 311 312 315 310 308 307 308 308 309 311 310 315 308 311 314 309 311 309 312 311 312 314 320 319 318 321 315 314 311 305 302 300 298
319 319 319 318 318 320 319 314 324 327 318 317 315 312 317 312 309 310 311 312 317 319 320 314 313 309 308 312 308 312 316 322 321 320 323 311 316 320 315 309 310 306 302 300 297
320 319 319 319 318 319 313 321 326 322 321 311 311 313 318 312 312 309 310 315 313 315 318 322 323 313 310 316 316 313 318 324 328 323 321 310 317 317 308 305 304 306 303 300 298
320 319 319 318 318 315 318 326 324 322 321 313 311 316 317 312 313 311 314 316 316 313 321 320 320 309 307 308 314 312 314 315 314 306 319 318 314 313 305 305 303 304 302 300 298
318 318 319 318 318 315 321 323 322 320 316 315 320 318 319 314 314 314 313 313 314 312 314 316 319 310 308 309 309 312 312 316 316 325 325 319 318 320 311 309 304 303 302 301 299
317 321 319 319 316 319 322 321 321 319 316 317 320 320 317 314 315 313 316 312 313 311 312 313 316 313 309 311 314 312 313 313 315 318 326 325 320 314 315 311 307 305 303 302 299
317 323 319 318 320 321 322 320 318 320 317 319 318 321 317 313 314 314 316 316 309 309 313 314 315 318 313 308 306 312 314 314 319 318 314 316 321 306 308 309 307 306 303 302 300
318 319 318 318 324 320 321 320 319 320 321 322 321 318 316 314 317 314 314 310 308 311 314 313 318 323 319 311 308 311 311 312 314 317 322 325 322 305 304 305 304 306 303 302 300
313 318 315 319 319 321 319 322 322 319 319 320 321 319 316 318 315 321 317 311 309 310 312 313 317 320 325 321 316 314 312 311 314 319 319 319 318 308 307 306 305 303 303 302 300
313 314 313 318 322 321 321 320 322 322 318 319 321 321 322 323 322 320 316 311 309 309 311 313 319 317 316 315 313 315 314 312 314 315 319 319 317 313 310 308 307 306 303 301 300
312 310 309 312 316 320 319 322 321 321 320 321 321 321 321 322 323 324 321 317 315 309 311 310 319 317 317 316 312 314 314 312 313 314 315 316 315 312 309 306 305 303 301 301 301
300 302 310 312 312 316 319 319 317 317 314 315 319 321 321 321 319 317 313 316 315 313 312 313 317 315 322 318 310 313 313 313 312 312 313 315 314 307 305 305 306 304 302 302 301

GFSSW_925_thetae_039.txt.gz
Theta_e
308 308 308 309 309 309 310 310 311 313 316 317 318 317 317 316 315 317 318 316 315 313 313 315 316 317 318 319 318 317 318 319 319 319 320 318 318 317 316 318 316 315 315 312 310
308 308 308 309 309 310 310 311 312 314 317 318 319 318 317 316 316 317 314 313 313 312 315 315 316 316 318 319 319 319 318 317 318 319 319 318 318 318 317 317 316 315 312 311 311
309 309 308 308 309 310 311 312 314 315 318 319 319 319 317 314 319 317 313 314 312 312 314 315 316 316 317 318 319 318 317 315 317 318 319 318 318 317 317 318 317 317 314 311 311
309 309 309 309 309 310 312 314 315 316 318 319 319 319 317 317 321 316 311 313 312 313 315 316 316 316 317 318 318 318 316 316 318 318 318 318 318 318 317 317 313 313 311 311 311
310 309 309 308 309 311 312 314 317 318 319 319 319 319 317 319 320 314 312 312 312 314 316 316 315 316 317 317 318 318 318 317 318 317 317 317 318 318 317 312 310 309 310 310 309
312 312 310 309 309 311 313 315 317 319 320 320 319 317 317 321 315 315 312 311 314 315 316 315 315 316 316 317 317 317 317 317 317 317 316 316 317 315 316 312 311 310 309 308 307
314 313 312 313 312 312 313 315 317 319 320 320 317 314 318 320 317 315 311 312 313 315 315 315 315 316 316 317 315 316 316 317 317 316 316 315 316 315 315 311 311 310 309 307 305
317 314 313 313 314 314 314 315 317 320 320 319 315 314 320 314 318 315 313 313 312 313 314 314 315 316 317 315 316 317 317 320 319 315 314 315 321 318 312 312 312 310 309 307 304
316 315 313 313 314 315 315 315 318 320 320 318 317 317 320 311 316 317 315 314 313 313 312 312 316 317 315 317 319 319 321 322 320 316 316 316 321 315 312 313 313 312 310 308 305
315 316 313 313 314 315 315 316 319 320 318 315 314 318 316 315 313 314 312 313 314 314 314 315 316 317 317 319 322 322 322 321 321 317 315 317 317 315 312 313 314 313 310 308 306
315 316 313 314 315 316 316 321 320 322 318 320 321 320 314 309 311 313 312 312 314 315 318 316 317 319 320 319 320 319 320 321 321 316 316 318 318 319 313 312 313 313 310 308 306
315 315 315 316 316 316 318 320 320 316 322 320 320 318 312 311 312 313 311 315 315 317 317 316 318 319 319 319 319 318 319 320 320 315 314 317 319 318 316 314 314 313 311 309 304
316 315 315 316 317 317 318 320 319 315 322 320 320 320 315 311 316 314 312 315 316 317 317 319 319 316 316 316 317 318 319 320 320 316 314 316 318 319 318 315 313 312 311 308 305
317 315 315 315 317 317 318 319 318 316 321 319 320 321 314 314 316 312 312 313 312 317 317 318 318 315 316 317 317 319 318 317 317 317 322 317 323 322 321 316 312 310 309 307 305
319 316 315 315 317 317 318 318 320 320 323 320 319 312 313 318 314 310 309 311 316 314 315 318 314 314 316 317 316 318 315 317 317 319 320 321 320 322 321 319 315 311 308 306 304
321 318 316 316 318 318 319 319 321 322 323 321 315 316 316 317 312 309 309 310 313 315 313 316 312 314 316 313 314 314 316 315 316 319 324 322 323 324 321 318 318 311 307 305 303
320 320 317 317 318 318 319 320 324 325 319 319 318 316 319 317 313 312 311 312 316 317 319 317 316 314 313 315 312 315 319 326 326 324 326 318 323 323 321 314 315 311 307 305 302
320 321 318 318 318 318 318 323 326 320 319 317 317 317 321 316 315 313 313 316 315 318 322 324 326 318 313 319 320 316 321 327 332 330 326 312 320 320 315 312 310 310 306 304 302
319 319 318 318 318 318 319 325 324 320 319 318 317 320 321 316 316 314 316 319 319 317 322 324 325 315 315 315 319 317 319 320 322 314 321 320 317 317 309 308 307 309 306 304 302
315 317 318 318 318 316 321 323 323 319 319 321 320 320 323 319 318 317 319 319 320 317 318 321 324 314 312 310 312 315 315 318 318 329 329 324 323 322 313 311 308 308 306 304 302
313 317 319 319 316 319 320 319 322 320 320 321 320 321 321 321 318 317 321 319 318 317 316 319 320 316 311 313 316 314 315 316 318 321 328 327 323 319 319 314 310 308 306 304 302
313 318 318 318 320 320 320 319 318 320 320 320 320 321 321 320 318 319 320 320 315 315 316 318 319 326 319 313 312 315 316 316 321 322 318 321 324 311 317 316 312 308 306 305 303
314 315 317 319 323 322 320 319 319 319 321 321 321 320 321 320 319 319 319 318 315 314 317 316 320 326 325 314 310 312 313 315 316 321 323 325 324 309 308 310 310 309 307 306 303
314 318 316 318 320 320 319 321 320 319 319 320 321 320 322 323 319 322 322 315 314 314 315 315 320 324 328 324 318 315 314 313 315 319 320 322 321 311 309 309 308 309 308 306 304
312 311 314 319 316 320 320 319 321 321 319 319 320 321 323 324 323 321 321 314 311 311 313 316 322 322 322 322 321 317 316 314 314 316 320 320 320 319 311 310 310 308 307 306 304
311 310 311 313 314 318 322 319 320 321 320 320 321 321 321 323 323 325 321 320 318 311 311 313 320 318 320 320 320 319 317 316 314 314 316 317 318 317 312 310 310 309 307 305 304
303 303 311 312 313 314 316 320 319 319 319 319 319 320 321 320 321 320 319 320 320 317 312 313 315 317 322 319 319 317 318 317 316 314 315 317 316 314 312 309 308 308 306 305 304

GFSSW_925_thetae_042.txt.gz
Theta_e
308 308 308 309 309 310 310 311 312 313 316 317 318 318 317 317 316 319 320 317 314 312 313 316 316 317 318 319 318 317 317 318 319 319 319 317 316 317 316 315 314 313 312 311 311
309 308 308 309 309 310 310 311 312 313 316 317 318 318 318 317 316 320 317 313 313 312 315 316 317 316 318 319 320 318 320 319 317 317 318 317 317 316 316 315 314 312 311 312 312
309 309 309 309 309 310 311 311 312 314 316 318 319 318 318 315 321 318 313 313 312 312 314 315 316 316 317 318 319 319 317 315 316 318 317 317 317 318 317 316 315 314 311 311 311
310 310 309 309 308 309 311 312 314 315 316 318 319 318 318 317 322 317 311 313 312 312 315 316 316 316 316 318 318 318 316 316 318 317 318 318 318 317 316 314 312 310 311 311 309
311 311 310 310 309 310 311 312 314 317 317 318 319 318 318 320 320 315 311 312 312 314 316 317 315 316 316 317 317 317 317 317 317 317 317 316 317 317 315 310 309 309 310 308 308
313 312 312 311 311 312 312 313 314 316 318 318 318 317 319 321 316 315 313 311 315 315 316 316 315 315 316 316 317 317 317 317 317 317 316 316 316 315 315 309 308 309 308 306 306
317 313 312 312 312 312 313 313 314 316 317 318 317 315 319 320 318 315 312 313 314 315 316 315 315 315 316 317 315 316 316 316 315 315 316 315 315 315 312 310 309 309 306 306 305
317 317 314 313 313 313 313 313 314 316 318 319 318 317 319 315 319 315 313 313 313 313 315 314 315 316 317 315 316 316 317 318 318 315 314 315 317 317 310 310 309 308 306 305 304
316 316 316 313 313 314 314 313 314 316 318 319 319 318 320 313 316 317 315 314 313 313 313 313 316 317 315 315 317 317 318 319 318 315 314 313 318 313 311 310 310 308 307 306 304
315 315 316 313 313 314 314 313 315 316 319 317 316 318 315 316 314 316 314 314 314 314 314 315 315 315 315 315 319 321 320 320 320 315 315 314 313 313 311 310 310 309 307 306 304
317 316 314 315 314 315 315 320 322 321 319 320 320 320 315 310 312 314 313 313 315 315 316 315 316 317 317 316 317 318 318 318 320 314 316 315 315 316 311 310 310 309 308 306 304
318 316 314 315 315 316 317 319 319 315 320 320 319 319 313 311 313 314 313 314 315 317 316 315 317 317 318 318 318 318 318 318 318 313 314 315 315 316 312 311 310 311 308 306 302
319 316 315 315 316 317 317 318 320 316 321 317 321 320 316 311 315 314 312 314 315 317 317 318 318 317 317 318 318 318 318 317 318 315 314 313 314 315 315 313 311 310 309 306 302
321 317 315 314 316 316 317 316 319 319 320 315 322 321 313 314 316 313 312 314 315 316 317 317 317 316 317 317 316 318 317 317 317 317 318 314 319 319 318 316 312 311 308 305 302
320 318 316 314 316 316 316 315 319 321 318 318 319 315 314 317 314 311 310 311 315 314 317 318 315 315 317 317 316 317 315 317 317 317 319 319 319 319 317 318 315 311 307 304 302
320 320 316 315 315 317 317 317 321 322 321 321 315 316 316 316 312 309 310 309 312 315 314 315 312 314 315 312 314 314 316 316 316 318 321 320 321 320 320 318 317 311 308 304 302
317 318 317 316 316 317 318 320 319 320 314 317 318 317 318 318 313 312 311 311 315 316 316 314 314 314 313 314 313 315 318 323 322 320 322 317 320 321 318 315 315 312 308 305 301
314 315 318 316 316 317 319 319 319 317 314 318 318 318 320 318 316 313 312 313 312 314 317 318 321 315 312 316 317 314 318 323 326 326 323 312 317 319 313 309 310 310 308 305 301
314 314 317 317 317 317 321 320 317 316 315 315 318 320 320 317 316 314 314 315 314 313 318 320 322 315 313 314 317 316 317 318 319 309 315 319 315 314 309 308 308 307 305 304 301
314 314 317 318 317 316 322 318 317 316 316 314 318 320 322 319 317 315 315 316 317 314 315 321 324 316 309 311 312 315 315 318 316 318 322 322 321 320 312 310 306 307 305 303 301
313 314 315 317 317 319 322 317 317 316 316 317 318 317 317 321 317 316 319 318 316 316 314 318 320 314 311 312 315 313 314 315 317 318 322 322 321 315 315 311 307 307 305 303 301
312 316 314 318 320 320 321 318 316 317 318 319 320 318 320 317 318 317 318 319 316 316 316 317 319 317 313 311 311 314 315 315 318 319 317 317 322 311 311 311 308 307 305 302 301
311 313 313 318 323 322 319 319 318 318 319 320 321 319 319 320 320 318 318 317 316 316 316 317 319 321 320 314 310 312 312 315 316 315 320 319 321 307 307 309 307 306 304 303 301
309 314 313 316 318 320 320 319 320 317 318 319 320 320 320 321 320 320 318 317 314 315 316 316 319 320 325 321 316 313 312 313 315 317 317 319 319 311 309 308 307 305 304 303 301
308 311 313 317 317 318 320 320 320 321 317 318 320 321 322 323 322 322 318 314 312 314 315 317 321 320 320 320 318 314 313 313 314 315 318 318 317 316 312 307 307 306 305 304 302
307 309 309 312 314 315 317 317 318 319 319 319 319 320 320 323 322 323 320 318 316 310 311 312 318 318 320 318 320 321 319 313 312 313 315 315 316 315 312 308 306 306 305 304 302
305 304 307 310 311 313 312 315 316 317 317 318 318 319 320 320 319 319 318 318 317 313 311 313 315 317 323 318 319 321 320 320 318 313 314 315 315 312 311 307 306 305 305 304 303

GFSSW_925_thetae_045.txt.gz
Theta_e
308 308 308 308 309 309 310 311 312 313 316 317 317 318 318 317 316 319 319 316 314 311 313 314 316 316 317 316 316 312 310 312 315 315 316 313 314 315 314 312 311 309 310 310 311
309 309 308 308 309 309 310 310 312 313 315 316 317 318 318 317 317 320 317 314 313 311 315 315 314 315 312 317 315 312 311 315 314 314 314 314 314 314 314 312 311 309 309 311 312
308 308 309 308 309 309 310 310 311 313 314 316 317 318 318 316 320 317 312 313 312 312 314 315 315 314 314 315 316 315 313 313 315 317 314 315 315 315 313 313 312 311 308 309 309
309 309 309 309 308 308 309 310 311 312 313 315 317 318 317 317 320 316 311 312 312 312 315 315 315 314 314 316 316 314 314 315 316 315 316 315 315 315 314 312 309 307 308 307 306
312 310 309 309 309 308 308 309 310 312 313 315 317 317 318 318 318 315 311 312 312 315 316 315 314 313 314 315 316 316 315 315 315 315 315 315 316 315 312 307 307 308 307 305 305
313 313 310 309 309 309 308 309 310 312 313 315 317 317 319 318 316 315 313 312 314 315 315 315 314 313 314 315 314 315 314 315 315 315 315 315 315 315 310 305 306 306 304 303 305
315 315 313 312 311 311 310 309 309 311 313 316 317 316 317 317 318 315 312 312 314 315 315 314 315 313 314 315 314 314 314 313 313 314 314 313 313 313 309 306 306 305 303 303 304
314 314 316 314 313 313 312 310 309 311 313 317 318 317 315 315 318 317 313 312 312 313 314 314 314 314 315 314 314 314 314 315 315 312 313 312 313 313 307 306 306 304 302 302 302
316 312 314 316 313 313 313 312 311 312 314 317 318 317 316 313 317 316 314 313 313 313 313 313 315 313 313 312 312 314 314 314 316 312 312 312 313 312 308 307 306 304 302 302 301
317 316 313 315 314 313 313 313 313 314 318 317 317 314 313 314 316 316 315 313 313 312 312 313 311 311 311 310 315 316 315 316 316 314 312 312 311 312 308 307 306 304 303 302 301
318 317 316 314 315 313 314 318 319 318 318 311 314 315 312 312 314 314 314 313 313 313 313 313 312 313 312 311 313 315 316 317 315 313 313 312 312 311 309 307 306 305 304 303 302
320 318 317 315 315 314 316 318 317 315 316 317 316 316 312 312 311 313 313 313 313 314 313 313 314 313 313 313 314 314 315 315 314 312 312 312 312 312 310 309 308 308 306 305 300
323 319 317 315 314 315 316 317 319 315 317 317 318 318 312 311 313 313 311 311 313 313 313 314 316 315 315 316 316 315 316 315 316 314 312 312 312 312 311 309 308 308 308 305 301
322 322 318 315 314 315 316 311 319 318 311 312 316 319 311 311 314 313 312 312 313 314 314 314 314 316 315 315 315 316 314 315 316 315 316 312 318 315 313 312 309 309 306 305 300
319 321 320 314 315 316 315 313 318 319 307 309 319 314 311 315 313 311 310 311 313 313 314 315 314 314 316 315 314 315 315 315 315 315 316 315 316 315 314 316 316 311 308 304 300
316 318 320 315 316 316 316 316 319 322 312 316 315 315 314 315 310 309 310 309 311 313 312 313 311 312 314 311 313 312 314 314 314 315 318 316 317 317 318 317 317 312 306 302 300
311 316 318 316 315 317 317 313 312 317 313 315 316 315 316 316 311 310 310 311 314 315 314 313 313 312 311 312 312 314 314 318 320 317 321 316 317 319 315 314 314 311 305 301 300
308 313 315 316 315 317 318 313 318 316 314 316 317 315 317 316 313 311 311 313 310 313 314 317 317 313 311 313 314 313 315 319 322 321 319 312 317 317 314 313 307 309 307 301 299
307 312 314 315 316 316 319 313 319 317 314 315 316 318 318 316 313 312 311 314 313 312 317 316 316 312 311 314 314 313 316 316 319 302 312 317 315 313 310 308 308 307 305 302 299
306 312 313 314 316 317 321 318 314 315 313 314 318 317 319 317 314 313 312 312 314 312 313 317 322 312 309 312 312 314 312 317 314 316 318 318 318 320 314 311 307 306 305 301 299
307 312 312 314 316 318 322 316 316 314 314 316 315 316 318 317 315 313 315 313 313 312 313 315 320 313 310 312 315 314 314 315 316 315 319 320 319 313 315 312 308 306 304 302 299
307 311 312 316 319 320 320 319 315 316 315 316 315 316 314 316 317 314 315 315 312 312 313 315 318 312 313 309 309 313 315 313 319 316 313 315 322 309 311 310 307 305 304 302 300
307 307 309 314 318 319 319 319 317 318 317 318 318 317 316 317 319 316 314 313 313 313 314 316 319 320 317 313 310 312 312 315 314 308 318 317 321 307 308 310 306 304 303 301 299
307 309 308 310 313 316 318 320 319 317 318 317 317 317 319 321 319 320 316 314 313 314 315 316 318 321 324 322 314 313 312 312 316 317 317 319 319 312 310 310 307 304 302 301 300
305 305 307 313 311 312 313 318 320 319 317 317 318 319 319 322 321 321 319 315 313 314 315 317 320 318 319 317 314 313 312 313 315 316 318 319 317 316 314 308 306 304 302 300 300
304 305 305 307 310 313 312 312 313 314 319 319 319 319 319 322 320 322 319 317 315 311 315 314 319 318 320 318 317 318 313 313 314 315 315 316 317 313 312 310 305 305 304 302 301
303 303 306 306 307 309 312 313 315 316 315 316 318 318 319 319 319 318 317 317 315 313 313 315 317 317 323 317 317 321 320 318 315 313 313 315 315 311 312 311 306 304 304 304 302

GFSSW_925_thetae_048.txt.gz
Theta_e
309 309 308 308 309 309 310 310 311 312 314 315 316 317 317 317 316 319 317 315 313 311 312 314 315 315 316 315 314 308 308 311 314 313 315 313 313 313 310 310 309 308 309 310 315
308 308 308 308 308 309 309 310 310 312 313 315 316 317 317 317 318 319 317 314 313 311 314 314 313 313 311 315 313 310 308 314 314 313 313 312 313 312 313 311 310 309 308 310 312
309 309 308 308 308 308 308 309 310 311 312 314 315 317 317 317 319 316 312 313 312 312 314 314 314 313 314 314 314 311 311 312 314 316 313 312 314 312 310 312 309 309 307 307 309
309 309 309 309 308 308 308 308 309 310 311 313 315 316 317 317 319 316 311 312 311 312 314 314 313 312 312 315 314 312 312 314 315 314 315 313 313 313 311 312 310 307 306 306 305
312 309 309 309 309 308 308 308 309 310 311 313 315 316 317 316 317 315 311 311 312 315 315 314 312 312 313 314 314 314 314 314 314 314 314 314 314 313 312 308 305 306 306 304 305
313 312 310 309 309 309 309 308 308 309 310 314 316 316 318 315 317 315 313 312 313 314 314 313 313 312 313 314 313 314 313 314 314 314 314 314 314 314 310 305 305 306 305 303 304
314 313 312 311 310 309 309 309 308 308 310 314 317 316 316 314 317 315 312 312 314 314 313 313 314 313 313 314 313 313 312 311 312 313 314 312 313 312 308 304 305 304 303 302 304
316 314 313 312 311 310 309 309 309 308 309 314 317 317 313 315 317 316 313 312 313 314 314 314 314 313 314 313 312 313 312 314 313 311 313 311 311 312 305 305 305 303 301 301 301
319 317 314 313 314 311 309 309 309 309 310 314 317 317 313 313 317 317 313 312 312 313 313 314 314 312 311 310 311 311 313 313 313 310 311 310 313 312 304 305 305 303 301 301 300
321 318 317 314 314 314 311 309 309 310 316 316 316 313 311 313 315 315 314 312 312 311 311 312 308 311 308 309 314 313 313 313 315 313 311 311 310 310 307 306 306 303 301 301 300
324 319 318 317 314 314 312 311 314 313 317 307 311 309 311 312 315 314 314 313 312 311 311 311 311 312 312 309 312 313 313 315 314 313 312 311 311 310 307 306 305 304 303 302 302
323 322 318 317 315 314 314 315 314 315 316 315 315 314 312 312 312 312 313 312 312 313 311 312 312 311 311 311 311 312 313 312 312 312 311 312 311 310 308 308 308 307 305 304 300
322 322 319 317 315 314 315 313 318 315 315 313 315 316 313 311 313 312 310 310 312 312 312 313 315 313 313 314 314 313 313 313 315 313 311 311 311 311 310 308 307 307 308 305 303
320 321 321 316 315 315 315 312 317 318 307 307 316 316 310 311 314 312 311 311 312 313 312 313 313 314 314 314 314 315 312 314 315 315 316 312 316 313 311 310 309 309 307 306 302
316 319 320 315 316 315 316 314 316 317 310 309 315 313 309 314 311 311 310 310 312 313 313 314 313 314 315 314 313 315 313 313 314 313 315 314 314 313 312 313 312 313 308 305 301
308 315 318 316 315 316 315 312 316 319 313 311 315 314 314 313 310 308 310 309 310 312 312 312 311 312 314 312 312 311 313 312 312 313 316 315 314 314 314 316 314 313 311 304 301
306 309 315 316 316 316 315 312 312 318 315 316 316 314 316 315 311 310 310 311 313 315 315 312 312 311 310 313 312 313 313 316 318 316 319 314 314 317 314 313 313 315 311 303 301
306 306 310 315 316 316 313 314 316 315 317 315 315 314 317 315 313 311 311 313 311 312 312 316 316 312 310 313 314 313 313 316 318 318 317 312 317 317 312 312 309 307 306 301 298
306 306 311 313 316 317 314 317 320 317 315 317 317 318 317 316 313 311 311 314 312 311 315 315 316 311 310 312 314 313 315 315 317 299 311 316 314 313 310 309 308 307 305 299 298
306 307 311 311 314 316 318 317 314 314 314 316 321 318 319 316 314 312 311 310 313 311 311 314 317 311 310 312 311 312 311 316 313 316 317 317 317 320 314 312 311 309 305 300 297
306 307 308 309 313 317 320 320 317 313 313 315 318 319 317 317 314 313 314 312 311 310 311 314 317 313 311 312 313 313 314 314 315 314 317 316 318 311 315 312 311 309 305 301 297
305 309 307 313 315 314 317 319 315 315 314 316 316 315 317 315 316 314 314 313 310 310 313 312 317 312 312 310 308 312 314 313 316 315 313 314 321 310 311 311 309 308 304 301 298
305 304 306 313 312 312 313 318 317 317 317 316 318 316 314 317 319 315 313 311 312 311 312 314 316 314 315 313 309 312 312 315 313 310 314 318 321 306 306 310 308 307 304 301 298
302 304 304 307 310 312 312 313 318 317 318 317 318 316 317 318 317 318 317 314 311 312 313 314 317 317 320 319 313 312 311 312 316 319 319 318 319 312 312 310 309 305 303 299 298
299 304 303 308 307 308 309 315 314 315 317 317 318 319 319 321 321 320 317 315 312 312 314 315 320 316 317 316 314 313 312 314 315 317 319 320 317 317 314 309 308 306 302 299 298
300 302 302 303 306 308 309 309 310 311 314 318 319 318 318 319 319 320 319 318 318 313 314 314 320 318 319 317 314 315 312 313 315 315 316 317 318 313 311 310 306 305 303 301 300
298 300 303 303 303 304 307 311 308 308 310 311 311 316 317 318 317 317 316 316 317 318 316 318 319 320 323 318 316 319 318 314 313 314 314 317 316 312 313 311 308 305 304 303 302

GFSSW_925_thetae_054.txt.gz
Theta_e
308 308 308 308 308 309 309 310 310 311 312 312 313 314 315 316 316 317 315 314 313 311 311 313 314 313 313 311 308 304 306 309 310 310 312 309 312 308 307 308 309 308 308 308 320
308 308 308 308 308 308 308 309 309 310 310 311 312 314 315 316 317 317 317 315 313 311 313 313 312 311 309 312 308 304 305 309 308 307 312 310 311 309 311 310 310 309 307 309 320
312 310 308 308 307 308 308 308 308 309 309 310 312 313 314 316 316 314 311 312 312 312 313 313 312 310 312 311 311 307 307 309 312 312 311 310 311 308 308 310 308 309 307 309 313
312 311 310 309 308 308 308 308 308 308 309 309 311 313 315 317 312 315 311 311 311 311 313 313 310 310 311 312 311 310 310 309 312 312 310 310 308 310 307 310 308 305 306 308 309
309 310 310 309 309 308 308 308 308 308 308 309 310 312 316 313 313 315 311 311 312 314 313 311 310 310 311 313 312 311 311 311 313 312 312 311 312 310 309 308 306 304 305 306 308
309 309 310 310 309 309 308 308 308 308 308 308 310 312 315 311 316 315 312 311 313 313 312 311 310 310 310 311 311 312 312 312 312 312 312 314 312 312 311 305 306 304 304 304 305
315 313 310 310 310 309 309 309 308 308 308 308 309 313 313 309 315 315 312 312 313 313 312 312 312 312 310 312 311 311 312 310 310 312 312 311 311 311 309 306 307 304 303 303 303
318 317 316 312 310 310 309 309 308 308 308 308 310 313 307 312 315 314 312 312 313 313 313 312 312 310 311 309 308 311 309 312 311 311 311 310 310 308 306 306 307 304 302 302 302
321 319 318 317 313 309 308 308 308 308 309 309 312 313 307 311 315 316 313 312 312 312 312 313 310 308 308 309 310 308 311 311 311 309 311 309 310 310 305 305 306 304 302 302 301
323 321 320 318 316 313 310 309 309 309 312 313 314 307 308 310 313 315 313 311 310 309 309 308 306 308 305 309 311 312 312 311 312 312 310 310 308 307 306 305 305 303 302 301 301
322 323 322 321 318 318 317 311 307 308 313 305 307 304 310 312 313 313 311 311 309 307 310 308 309 311 310 308 310 308 311 312 310 311 311 310 309 308 308 305 304 304 303 303 303
319 321 322 322 319 316 317 310 309 312 314 311 310 310 312 312 313 312 311 312 311 311 309 309 310 309 309 308 311 311 312 311 310 310 311 310 310 309 308 306 306 307 306 305 304
316 318 320 321 318 316 316 313 315 314 313 310 312 313 311 311 311 311 309 309 311 310 309 310 312 309 310 310 311 310 310 310 312 311 308 309 310 309 308 306 306 305 306 305 306
309 315 319 319 316 316 316 319 316 313 309 308 309 312 309 309 312 310 310 310 310 312 309 310 310 312 311 311 311 312 309 310 312 313 313 310 313 310 310 309 308 308 306 306 306
306 310 316 318 316 315 316 317 317 312 326 311 310 311 308 309 309 311 308 310 311 311 311 312 311 312 312 312 310 312 310 310 312 311 313 311 313 311 310 311 311 311 309 306 305
307 306 312 316 316 316 316 315 312 317 323 313 313 313 312 311 309 308 310 308 308 311 311 310 309 310 312 310 310 309 311 310 309 310 315 312 312 313 311 312 311 310 310 307 304
306 306 306 311 316 316 314 313 316 319 315 317 314 312 312 312 310 311 311 310 312 314 313 311 311 310 310 312 310 311 313 315 313 313 316 310 312 314 310 310 309 311 309 306 305
304 304 306 306 314 315 313 317 319 317 315 313 314 313 315 312 311 310 310 312 310 310 308 312 311 310 309 312 313 311 313 314 313 312 311 310 314 313 309 308 307 306 306 306 303
303 304 305 306 307 314 315 318 320 315 313 315 316 318 316 315 312 310 310 311 311 309 312 310 311 310 309 310 312 312 314 312 313 297 309 310 309 309 309 309 308 307 306 306 302
302 303 304 305 307 313 316 318 318 312 312 315 318 317 317 315 315 311 310 309 310 310 309 311 312 310 310 310 310 311 310 314 311 313 311 311 312 313 315 311 310 309 309 307 303
301 302 303 305 310 311 314 315 316 312 312 316 317 318 315 315 314 311 313 311 308 309 310 311 313 311 310 310 311 312 313 312 312 311 312 311 313 308 311 311 311 310 309 307 304
301 301 304 307 308 307 310 309 310 315 313 314 316 316 316 313 314 312 313 312 308 309 312 310 312 314 312 308 307 309 311 311 312 311 309 311 316 309 309 308 308 309 309 307 303
297 297 300 306 307 307 306 307 308 311 316 316 316 316 314 317 319 313 312 310 309 311 312 312 316 314 315 312 308 310 309 310 309 306 311 313 316 306 307 306 308 308 307 304 302
298 298 297 301 302 305 305 306 307 308 309 313 317 316 317 317 317 317 314 311 309 311 314 314 316 316 319 315 311 310 309 310 313 315 316 314 315 313 311 310 307 306 304 303 302
300 298 298 299 299 300 304 308 306 307 309 310 312 314 315 317 318 318 316 314 312 311 313 316 316 315 315 312 311 311 311 311 313 314 314 315 314 314 312 310 309 307 306 305 302
299 298 297 297 300 300 300 304 308 309 308 308 311 311 312 315 315 317 317 316 316 311 313 315 318 315 317 315 313 314 311 311 312 313 313 314 314 314 311 309 308 307 308 306 302
294 295 299 298 297 298 301 302 301 302 304 307 308 309 312 313 313 313 311 314 316 316 315 316 315 316 321 316 314 318 316 317 314 313 313 315 314 313 314 312 311 311 306 307 304

GFSSW_925_thetae_057.txt.gz
Theta_e
310 309 308 308 308 309 309 309 310 310 311 311 312 313 314 315 316 317 315 314 313 311 311 313 312 313 312 309 306 303 310 311 311 310 313 306 310 306 306 309 308 308 308 309 320
310 310 309 308 308 308 308 308 309 309 310 310 311 312 313 315 317 316 316 315 313 311 312 312 311 311 309 310 307 305 308 310 308 307 311 308 310 308 310 310 310 308 306 308 322
311 308 308 308 308 307 307 307 308 308 308 309 310 311 313 316 314 313 311 311 312 311 313 313 311 310 310 310 309 306 306 307 310 310 310 310 309 307 309 310 309 310 308 309 318
310 310 308 308 308 308 308 308 307 307 308 308 309 311 314 316 309 314 310 311 311 311 312 312 308 310 309 311 310 311 309 308 311 311 309 309 307 309 307 310 308 306 307 309 313
309 309 309 308 308 308 308 308 308 308 308 308 308 310 314 310 313 315 311 311 311 313 312 310 310 309 310 311 311 310 310 310 311 311 310 308 310 309 308 306 306 305 306 309 313
309 309 309 309 309 308 308 308 308 308 308 308 308 310 313 309 315 315 311 311 313 313 311 310 308 308 309 310 310 311 311 311 311 311 311 312 311 311 310 305 307 305 306 307 310
315 313 311 310 310 309 309 308 308 308 308 308 309 310 310 308 314 315 312 312 312 313 311 311 310 311 309 311 309 309 312 310 309 311 312 311 311 311 309 307 307 306 304 304 306
317 317 316 314 310 309 309 309 308 308 308 308 309 311 306 311 314 314 312 312 312 313 312 312 312 308 310 307 308 310 308 312 310 310 311 311 311 309 306 307 308 306 304 303 304
319 319 318 317 315 309 307 308 308 308 308 309 310 309 306 311 314 315 313 311 312 311 312 311 309 307 308 309 310 308 310 311 311 309 310 309 311 309 305 305 306 305 304 303 303
321 321 321 319 318 316 313 310 310 311 312 312 312 306 307 309 313 314 312 311 309 309 309 308 305 307 305 309 310 311 312 310 311 311 309 310 309 308 306 306 307 305 304 304 304
321 322 322 322 321 320 322 315 309 311 311 306 306 305 309 311 313 312 311 310 308 307 310 307 309 311 309 308 308 308 310 311 309 309 311 310 309 309 308 305 305 306 305 305 304
318 320 321 322 322 321 319 313 308 312 315 311 308 308 311 312 312 312 311 311 310 310 308 308 310 309 307 307 310 310 311 311 309 309 310 310 311 310 308 310 309 309 309 307 307
313 317 319 321 321 319 318 317 314 314 312 311 311 311 310 310 309 309 309 308 309 309 308 309 310 307 309 308 309 309 310 310 311 310 308 308 310 309 308 306 307 306 308 307 308
307 313 318 320 318 317 317 318 315 313 314 314 309 311 309 308 310 309 310 309 309 311 307 309 308 310 309 310 309 311 307 309 311 312 313 309 312 310 309 309 308 308 307 307 307
307 308 316 318 317 316 316 317 316 312 326 311 309 310 308 309 309 310 308 310 310 310 309 310 310 310 311 310 308 311 307 308 310 311 312 311 313 312 309 310 310 310 309 308 306
305 307 312 315 316 316 316 315 313 321 327 315 311 313 311 311 309 308 310 307 307 310 310 309 308 309 310 309 309 307 309 309 308 310 314 311 312 310 309 311 310 309 309 308 305
303 305 306 310 316 316 315 313 318 322 316 317 314 311 311 311 310 310 311 310 310 313 312 311 310 310 309 310 309 310 311 313 312 314 317 309 311 313 309 308 308 310 310 307 305
301 303 304 306 314 314 313 317 320 318 316 312 313 312 312 311 310 310 310 312 310 308 307 311 311 310 308 310 312 310 311 312 311 310 309 309 313 312 308 307 306 305 305 305 305
300 302 303 305 307 312 314 317 316 315 312 314 314 315 314 313 310 310 309 310 310 308 311 308 309 308 308 309 310 311 313 310 311 296 308 309 307 306 307 308 308 308 306 305 304
299 302 302 304 306 313 316 317 316 312 311 313 317 315 315 314 312 309 309 308 310 309 308 309 311 310 309 310 310 310 309 313 310 311 309 309 309 311 311 312 309 308 307 306 304
299 298 301 303 308 309 314 314 314 312 312 315 316 317 314 315 313 310 312 310 307 308 310 310 311 310 309 310 310 311 312 311 310 310 311 309 311 306 309 308 309 308 308 308 306
299 298 302 306 308 307 308 308 310 313 312 314 315 316 315 313 313 312 312 311 307 308 311 309 312 313 310 308 306 308 310 311 312 310 308 309 314 309 308 309 308 308 308 307 305
297 296 299 306 304 305 304 306 307 309 310 313 315 316 314 315 318 314 312 309 307 310 311 310 315 310 315 311 308 309 308 309 308 306 309 313 315 306 306 307 308 307 307 304 304
298 297 295 299 302 303 303 304 306 306 307 307 312 314 316 316 316 317 313 312 308 309 312 313 315 315 319 314 310 310 309 310 312 314 315 312 313 312 311 310 308 307 305 304 303
299 298 296 296 297 300 305 305 303 303 306 307 308 308 312 315 315 317 316 315 313 311 313 316 318 316 315 314 311 311 310 311 313 313 315 315 314 313 312 311 310 309 305 305 305
299 299 295 296 299 296 298 302 304 306 305 306 306 306 308 310 310 311 312 311 314 313 314 314 315 316 317 314 315 313 310 310 312 312 313 314 314 313 312 307 307 307 309 309 306
296 296 298 297 297 299 298 298 299 300 301 305 307 305 307 308 306 307 306 307 310 312 313 315 314 316 320 316 316 316 315 314 312 311 312 313 313 312 312 311 309 308 306 308 307

GFSSW_925_thetae_060.txt.gz
Theta_e
314 311 309 308 309 309 309 309 309 310 310 311 311 312 313 315 316 317 315 313 313 311 311 312 312 313 314 315 312 312 319 320 319 318 318 314 316 311 311 315 316 316 315 316 325
313 311 308 308 308 308 308 308 308 309 309 309 310 311 312 315 316 316 315 315 313 311 311 313 314 314 315 315 314 317 319 318 316 316 317 315 315 314 315 315 316 315 312 312 325
311 310 308 308 307 307 307 307 308 308 308 309 309 310 312 316 316 315 311 311 312 311 312 312 312 314 315 315 314 313 317 312 314 313 314 315 313 313 315 316 317 317 316 313 326
310 309 308 308 308 308 307 307 307 307 307 308 309 310 314 315 312 314 311 311 311 311 312 311 313 315 315 315 313 314 312 313 315 315 314 314 314 314 314 318 314 315 315 314 324
313 310 308 308 308 308 308 308 308 308 308 308 308 310 314 313 315 314 311 311 311 312 312 312 313 314 314 315 314 314 313 312 314 313 313 311 314 315 314 315 312 311 311 314 319
314 313 310 309 308 308 308 308 308 308 308 308 308 310 312 311 315 314 311 312 313 312 311 311 313 313 314 314 314 314 314 314 314 314 314 315 315 314 316 315 312 312 313 314 316
313 313 312 310 309 309 309 308 308 308 308 308 308 310 310 310 315 314 311 312 312 312 312 311 310 314 314 315 312 312 316 315 314 314 315 313 315 315 316 312 314 314 314 313 313
317 316 315 314 311 309 309 309 308 308 308 308 308 310 309 312 314 312 311 312 312 312 312 311 311 313 314 312 314 315 316 317 314 313 314 314 317 316 311 313 315 316 315 314 313
319 318 317 317 315 310 307 307 307 308 308 309 309 309 309 311 314 314 311 311 311 311 311 310 311 313 313 317 317 316 316 317 316 313 314 315 318 316 311 311 314 315 315 315 314
320 320 319 319 318 317 319 311 311 313 311 311 311 308 308 310 313 314 312 311 311 311 313 313 313 315 315 317 315 316 317 315 316 314 313 316 316 316 315 312 315 316 316 315 313
320 320 321 320 321 321 322 317 314 315 311 310 307 306 309 311 313 312 310 310 310 313 316 311 316 317 316 316 313 314 315 315 314 312 315 316 317 316 316 316 315 315 316 316 316
316 319 321 321 321 321 321 319 310 313 321 313 310 308 310 312 313 313 310 314 313 315 312 314 315 316 312 312 313 314 316 316 315 312 313 316 316 316 316 316 316 317 317 317 317
316 317 318 320 320 320 320 316 314 314 318 316 312 313 312 311 313 313 312 311 313 313 314 314 314 312 312 312 314 314 316 315 315 313 312 314 316 317 316 314 314 315 315 316 316
309 314 318 319 318 318 318 318 315 312 324 321 312 313 310 311 314 309 311 313 312 314 313 314 312 312 312 313 314 315 313 314 314 315 316 313 314 315 315 315 314 315 316 316 315
307 311 317 317 318 317 318 319 316 313 333 316 311 310 308 314 312 311 308 311 314 313 313 314 313 313 314 314 313 315 311 313 313 316 316 316 316 314 313 314 315 316 316 317 316
304 306 312 316 316 316 316 316 314 322 329 319 312 314 312 311 310 310 311 310 310 312 312 312 309 312 314 310 311 311 314 314 315 317 317 315 316 314 314 315 315 315 315 316 315
300 304 308 313 316 316 314 315 320 324 318 319 315 313 313 313 312 313 313 313 314 314 314 313 313 311 311 313 311 313 316 316 319 321 318 314 316 315 314 313 313 315 315 314 312
298 302 304 307 313 315 313 317 323 322 321 313 314 313 314 312 312 312 314 315 312 311 312 314 313 313 312 314 315 314 316 316 320 318 314 311 316 316 315 313 312 312 313 313 310
299 301 302 305 310 313 316 317 318 316 316 316 316 317 316 314 313 312 313 314 314 312 312 312 313 310 310 311 313 314 315 314 315 308 314 313 314 314 313 312 312 313 314 315 313
299 301 301 304 306 313 315 315 315 314 313 315 319 318 319 317 314 313 313 312 313 312 313 312 312 310 310 311 311 313 313 316 315 322 319 313 314 315 315 315 316 313 313 314 313
298 301 300 302 307 312 314 314 314 313 313 316 317 318 318 317 316 313 314 312 310 311 312 313 313 313 311 313 314 313 314 314 314 316 318 317 314 314 315 315 314 314 313 314 313
300 300 300 306 309 310 311 311 310 313 313 314 315 317 318 316 317 318 318 314 310 311 313 313 314 316 314 311 310 312 314 314 316 318 315 316 317 311 313 314 313 314 312 312 311
301 300 299 305 306 308 306 307 309 310 312 315 315 315 314 316 318 318 317 312 309 312 313 313 316 321 319 314 310 312 313 312 314 314 321 321 317 312 312 312 313 313 313 312 310
300 300 300 301 305 303 304 306 307 307 309 310 311 313 315 316 315 316 316 313 310 310 311 313 316 319 322 319 315 314 313 313 314 317 317 317 316 315 315 314 313 313 313 312 312
299 300 299 302 303 304 303 303 304 305 307 307 307 309 312 314 315 317 314 312 311 311 312 315 317 317 318 318 314 315 315 314 314 315 317 317 317 316 315 315 314 314 313 314 312
299 301 297 299 299 302 302 304 304 304 303 304 306 307 308 309 309 310 308 310 313 310 309 312 315 316 318 318 318 318 316 314 314 315 315 315 316 316 315 315 315 313 313 313 313
298 297 299 299 301 300 302 302 302 303 304 305 305 307 306 306 307 307 305 305 307 309 312 313 314 314 317 317 318 319 318 318 317 315 316 317 316 316 316 315 315 314 313 312 313

GFSSW_925_thetae_063.txt.gz
Theta_e
313 312 311 310 309 309 310 310 310 310 310 310 311 312 312 314 315 317 316 315 315 311 311 313 314 315 316 318 317 318 320 320 321 321 319 318 319 316 317 318 318 320 318 321 325
313 310 309 309 309 309 308 309 309 309 309 309 310 311 312 315 319 318 316 314 313 311 313 314 315 315 317 319 319 320 320 320 320 319 319 318 318 318 317 317 318 318 317 319 327
311 310 308 308 308 308 308 308 308 308 308 308 309 310 312 315 319 317 312 312 312 311 314 314 314 316 316 317 318 319 320 318 317 317 317 318 317 317 317 318 318 318 318 318 327
311 310 308 308 308 308 307 307 307 307 307 308 309 310 314 317 315 315 311 311 311 312 314 314 314 315 315 316 316 315 315 315 317 317 316 317 317 317 317 318 317 319 318 317 326
313 312 311 309 308 308 308 308 308 308 308 308 308 310 315 316 317 313 310 311 311 312 313 314 314 315 315 316 315 314 315 314 316 316 316 315 316 317 318 318 316 315 315 318 321
314 313 312 311 309 308 308 308 308 308 308 308 308 310 315 313 315 314 311 311 313 313 313 313 314 315 315 316 315 316 315 316 316 316 316 316 317 316 317 318 318 316 316 317 318
313 312 312 311 311 309 309 308 308 308 308 308 308 310 312 314 315 313 311 312 312 313 314 313 313 316 316 316 315 316 316 316 316 316 316 316 317 316 316 316 317 317 316 317 317
316 315 314 314 312 310 309 309 309 308 308 308 308 312 312 312 315 312 311 312 312 312 313 313 314 316 317 316 316 316 317 316 317 316 316 317 316 318 316 317 317 317 317 317 317
318 318 317 317 316 312 308 307 308 307 308 309 312 312 312 312 315 314 311 313 312 312 311 312 315 317 316 317 318 318 316 317 318 316 317 317 318 318 316 315 316 317 317 317 317
319 319 319 319 318 318 320 314 309 314 313 311 311 311 309 312 315 314 311 311 314 314 314 315 315 316 317 317 315 316 317 316 317 317 315 317 318 317 317 317 317 318 318 318 317
320 320 320 320 321 321 321 317 316 317 313 315 310 309 309 313 313 314 311 312 313 315 317 316 316 316 316 316 316 316 316 316 316 315 316 316 316 316 317 317 317 317 317 317 318
318 320 321 321 321 321 320 321 315 315 322 318 315 311 311 313 314 315 311 315 315 316 315 315 316 316 316 316 316 316 316 316 316 316 315 316 316 316 317 317 317 317 317 317 318
315 317 319 321 321 320 321 317 315 315 323 321 316 317 314 312 316 316 313 315 315 315 315 314 314 314 315 315 315 316 316 315 316 316 315 316 317 316 317 317 317 317 317 317 318
312 315 317 319 318 319 320 319 315 312 325 323 317 316 313 314 318 311 313 314 314 314 314 314 314 314 314 314 314 314 315 315 315 315 315 316 316 315 316 316 317 317 318 317 318
306 311 317 317 318 319 318 318 315 316 333 320 314 311 311 317 314 313 310 313 315 315 314 314 315 315 315 314 314 316 314 315 316 317 318 317 317 315 315 315 316 317 318 318 319
304 306 311 315 317 317 317 316 317 323 328 319 314 315 315 313 312 312 312 312 312 315 314 315 312 314 315 313 314 314 316 317 317 317 316 316 316 315 316 315 316 316 317 318 317
299 304 308 312 317 315 315 316 320 323 321 322 316 315 316 316 314 314 314 314 317 317 317 315 314 313 313 314 313 315 316 315 317 321 318 316 316 316 315 315 316 316 316 317 316
298 300 306 310 314 314 314 321 322 321 322 316 316 315 316 315 314 314 316 317 315 316 317 318 317 314 313 315 315 316 316 317 319 319 318 314 317 316 316 316 316 315 315 316 316
298 302 305 307 312 314 315 320 318 316 317 318 317 318 317 315 315 314 315 317 316 315 316 316 315 313 313 313 314 315 317 316 318 318 316 315 315 315 316 315 315 315 315 316 316
301 301 302 305 307 313 316 317 316 314 315 317 320 319 320 318 315 315 315 315 314 314 314 314 314 312 312 312 313 314 314 316 315 323 320 315 315 316 316 316 316 316 316 316 316
301 302 302 304 309 313 315 315 314 313 314 316 316 316 317 317 318 317 317 315 313 313 314 314 314 314 312 314 314 314 314 314 315 316 318 319 316 316 316 316 316 317 317 316 316
301 302 301 307 312 311 312 312 311 313 313 315 315 316 315 316 318 318 317 315 313 313 314 314 314 317 315 313 313 314 314 314 316 317 316 317 318 316 315 315 316 315 316 316 315
301 301 300 305 308 310 309 309 310 310 312 314 314 314 314 316 318 319 319 316 313 314 317 314 317 321 321 317 313 313 314 314 315 316 321 322 318 315 316 315 315 315 316 316 315
301 301 302 304 306 305 307 307 308 308 309 311 312 313 314 315 315 316 316 315 314 312 312 313 317 320 322 319 318 316 315 315 315 318 318 318 317 316 316 316 316 316 315 315 316
301 300 301 304 304 306 304 304 305 306 307 308 310 312 313 313 313 314 315 315 313 312 312 312 317 318 319 318 318 319 320 317 316 316 317 317 317 317 316 316 316 317 316 315 315
300 301 300 302 302 304 303 303 304 304 305 306 307 306 309 310 309 309 312 314 313 312 313 310 314 314 313 312 313 316 316 319 318 317 316 316 317 316 316 316 316 316 316 316 315
299 299 301 300 300 304 303 304 303 303 304 304 304 305 306 307 306 308 307 307 308 309 310 312 314 313 313 312 314 318 317 317 318 318 318 318 317 316 316 316 316 317 317 316 315

GFSSW_925_thetae_066.txt.gz
Theta_e
315 313 312 310 309 309 309 309 310 310 310 310 311 311 312 313 315 316 320 316 314 311 311 314 315 316 316 319 318 318 320 320 321 320 319 317 318 317 316 317 318 318 318 322 326
315 313 310 309 309 309 309 309 309 309 309 309 309 310 311 313 317 320 317 313 313 311 314 314 315 316 317 319 319 318 320 321 318 317 318 317 317 315 316 316 316 317 315 322 328
314 313 311 308 308 308 308 308 307 307 308 308 308 309 311 315 322 318 315 313 313 311 313 314 314 315 316 317 319 320 320 315 316 317 316 318 316 317 316 316 315 315 314 320 329
313 313 311 309 308 307 307 307 307 307 307 307 308 309 313 318 319 315 311 311 312 311 314 314 314 315 315 315 317 315 316 315 317 317 316 317 317 316 315 317 316 314 314 319 325
313 312 312 310 308 308 308 308 308 308 308 308 308 309 315 318 318 313 310 310 311 312 314 314 314 314 315 316 315 314 315 314 316 315 316 315 315 316 315 314 314 314 315 315 322
314 312 312 310 308 308 308 308 308 308 308 308 308 309 316 315 315 313 311 311 313 313 313 313 314 314 315 315 315 316 315 315 315 315 315 315 315 316 315 313 314 313 313 313 315
314 312 311 311 309 308 309 308 308 308 308 308 308 310 313 314 316 313 311 313 313 314 314 314 314 315 315 316 315 316 315 314 314 315 316 315 315 314 313 315 315 314 312 312 313
314 314 313 311 311 309 309 309 309 308 308 307 308 313 313 312 315 312 312 312 312 313 314 313 314 316 317 315 315 316 316 316 316 315 315 316 313 315 315 312 313 313 312 311 312
317 317 316 316 315 311 309 308 308 307 307 309 313 313 313 312 316 313 313 313 313 313 312 313 315 317 316 316 317 316 314 313 316 315 316 315 317 316 315 315 314 312 312 312 312
318 318 319 319 317 318 317 313 310 311 316 313 312 312 309 313 315 314 312 313 314 314 314 315 315 316 315 314 314 316 316 315 317 315 315 315 314 314 314 314 313 313 312 312 312
319 319 319 320 320 320 321 320 318 318 314 315 311 309 311 313 314 315 312 312 314 315 316 315 314 314 314 314 314 315 315 314 315 314 315 315 314 313 313 312 312 311 312 311 312
317 319 320 321 320 321 321 322 315 315 322 319 317 312 311 314 315 314 312 314 315 316 316 314 315 315 316 316 316 316 315 314 314 314 314 314 313 312 312 312 312 312 312 311 312
316 317 319 321 321 321 321 317 316 316 322 321 317 319 314 312 316 315 312 314 315 316 315 315 314 314 315 315 316 315 314 313 314 315 313 313 313 313 313 313 312 312 312 312 312
312 316 318 319 320 320 321 320 317 315 323 323 318 317 313 314 317 312 313 314 314 314 314 314 313 314 315 315 314 314 314 314 315 314 313 315 314 312 312 311 313 313 312 311 311
306 314 317 316 318 320 320 319 315 317 329 319 315 312 312 317 314 313 311 313 314 313 313 314 314 314 315 314 313 315 314 314 315 316 316 315 314 312 310 311 311 312 312 311 312
303 306 314 316 317 318 318 318 318 324 325 318 315 315 315 314 313 312 312 312 312 315 314 314 312 314 314 312 314 314 316 316 317 316 313 314 313 310 310 313 314 314 315 316 315
298 302 308 312 316 316 318 317 320 324 321 321 316 316 316 317 315 314 314 314 316 317 316 315 313 313 313 313 313 315 314 313 317 318 315 314 312 312 312 312 313 314 312 311 314
298 299 306 309 313 315 316 318 320 320 323 317 317 316 317 316 316 315 316 316 314 316 317 319 318 313 312 314 314 314 314 314 316 318 315 311 313 313 313 314 313 314 312 311 311
299 301 305 308 311 313 316 318 322 320 320 318 316 317 317 316 315 314 315 316 316 314 317 317 317 312 312 313 314 315 315 314 314 306 313 313 312 312 312 312 311 311 311 310 310
301 302 301 307 308 313 317 317 317 315 316 318 320 319 319 316 315 314 314 314 315 314 314 315 315 312 311 312 312 313 313 315 314 314 314 312 311 312 312 312 311 313 314 312 312
301 303 302 304 309 314 315 315 314 313 314 316 317 318 318 318 315 315 317 314 314 313 313 314 315 313 312 312 312 312 312 313 313 313 316 313 311 312 313 313 314 314 314 312 312
302 301 302 308 312 312 312 313 311 312 314 314 314 316 316 315 319 319 318 316 312 312 314 313 315 314 313 312 311 311 311 312 313 314 312 313 314 312 312 311 312 314 313 315 313
302 302 301 306 309 310 309 311 311 312 313 314 315 314 313 315 317 317 317 314 313 315 317 315 315 314 317 316 312 312 312 312 312 310 314 313 314 310 312 311 311 313 311 311 313
302 301 303 304 305 307 308 308 308 309 310 310 312 313 313 314 314 315 317 315 314 312 312 315 317 317 318 319 318 318 317 316 314 316 314 314 314 313 313 312 312 311 310 310 310
302 301 302 302 302 305 306 306 307 307 309 308 310 311 313 314 314 314 314 314 313 312 312 314 315 315 316 316 317 317 318 318 320 319 317 316 315 314 314 313 312 311 311 311 311
300 301 301 302 302 302 304 304 305 306 306 307 308 308 310 311 311 311 311 311 313 313 312 311 313 311 308 312 310 310 309 310 313 315 317 317 316 313 313 313 313 313 312 312 312
298 299 301 300 301 302 303 303 302 304 304 305 306 306 306 307 306 306 307 307 310 310 312 312 311 311 307 309 309 313 309 309 310 311 313 316 315 314 314 314 314 313 313 314 313

GFSSW_925_thetae_069.txt.gz
Theta_e
316 314 314 311 309 309 309 309 309 310 310 310 310 310 311 311 315 315 320 316 314 311 312 314 314 315 316 317 316 314 313 314 317 318 316 314 316 314 314 315 316 317 317 320 330
316 314 313 312 310 309 309 309 308 308 308 308 309 309 310 312 316 320 317 313 312 310 312 313 313 314 312 316 315 312 311 315 314 314 315 315 315 314 315 314 315 315 315 325 330
315 314 313 312 309 308 308 308 307 307 307 307 308 308 310 314 321 317 315 314 313 310 313 314 313 313 314 315 316 316 315 314 314 315 314 315 315 312 312 313 312 314 313 326 331
313 313 312 311 309 308 307 307 307 307 307 307 308 308 312 317 315 315 311 311 312 311 313 313 312 313 313 313 314 314 314 313 315 315 315 315 313 315 312 313 313 312 312 324 326
313 312 312 310 309 308 308 308 308 308 308 308 308 308 314 317 317 312 310 310 311 312 313 313 312 312 313 313 313 312 313 313 314 314 314 314 314 314 313 311 311 312 313 323 325
313 312 311 310 308 308 308 308 308 308 308 308 308 309 314 315 315 313 310 311 313 313 313 312 312 312 313 313 312 314 313 313 314 314 314 314 313 313 312 310 311 310 311 315 321
313 312 312 311 309 308 308 308 308 308 308 308 308 310 313 312 315 313 311 313 312 313 312 313 313 313 313 313 314 314 313 313 312 313 314 313 309 312 310 313 311 309 307 310 314
313 312 311 313 312 309 309 309 308 308 308 307 308 312 312 312 314 312 312 312 312 313 314 312 314 314 315 313 314 314 313 312 313 312 314 311 307 309 311 309 311 309 307 307 308
315 315 314 315 315 311 309 309 308 308 307 309 313 312 312 313 315 313 312 313 312 312 312 314 315 313 314 312 312 313 310 311 314 312 314 313 311 313 311 311 309 308 308 307 306
317 317 317 317 316 315 314 312 310 309 315 313 312 308 308 312 314 313 312 313 313 312 312 313 310 312 310 309 310 313 313 313 313 314 313 313 311 310 310 312 310 309 308 307 307
318 318 318 319 319 319 319 317 315 314 315 312 310 308 312 312 313 313 311 312 312 313 312 313 310 310 310 310 311 313 314 313 312 313 313 312 311 310 310 308 307 307 307 307 308
318 318 319 320 320 320 320 319 314 315 320 314 313 309 312 313 313 313 311 312 313 312 312 310 310 310 311 313 313 314 314 312 311 313 313 311 311 309 309 310 309 309 306 306 307
316 318 319 320 320 321 321 316 316 316 319 319 316 316 311 312 313 313 311 312 313 313 313 312 313 311 314 314 314 314 313 312 312 312 311 310 309 310 310 309 309 308 307 308 308
314 317 318 320 320 320 320 319 317 314 319 321 318 316 312 312 315 311 311 312 313 313 312 313 312 312 313 313 312 313 312 312 312 311 310 311 310 310 311 309 308 308 307 307 307
308 316 317 317 318 319 318 319 316 317 318 317 315 312 311 315 313 312 310 311 311 311 310 311 311 312 313 312 311 312 313 313 313 313 314 312 311 309 308 309 308 307 306 307 307
301 308 316 316 317 318 317 318 317 318 317 315 313 314 315 313 312 311 311 310 311 313 312 311 311 312 311 311 311 312 313 313 313 311 310 311 309 307 308 309 311 311 310 309 312
298 303 310 313 316 315 317 316 319 317 316 318 315 314 316 315 313 312 312 312 314 314 314 313 312 311 311 311 311 313 310 310 313 313 310 309 309 309 309 309 311 313 311 309 310
298 299 307 312 314 314 316 316 321 318 320 316 315 315 316 315 314 313 313 313 312 314 313 316 317 311 310 311 312 312 309 310 312 316 313 309 312 312 308 310 311 312 308 307 307
301 301 305 308 312 315 315 315 319 318 318 317 314 316 316 314 313 313 312 313 312 311 316 315 316 311 311 311 311 312 313 311 312 300 309 310 309 308 309 308 309 307 309 309 309
301 301 302 307 310 314 315 315 315 316 317 317 318 316 316 315 314 313 313 312 314 311 311 313 315 310 310 311 311 311 311 313 311 310 311 309 309 311 309 309 311 312 313 309 309
301 299 302 306 310 314 315 314 315 313 314 318 319 320 317 316 314 314 314 312 311 311 312 312 312 312 311 311 311 311 311 312 311 311 312 311 310 306 309 311 311 312 310 310 311
300 298 301 308 312 312 313 312 311 312 313 314 314 315 316 318 317 317 316 313 310 311 312 312 312 310 311 309 309 309 310 310 312 311 309 311 313 309 307 308 309 309 309 308 310
298 298 301 306 310 310 309 311 310 311 313 314 314 313 312 314 316 317 316 313 311 313 314 314 312 307 312 313 311 312 310 310 310 307 310 310 313 309 308 308 309 309 307 306 307
298 298 299 301 303 305 308 309 310 309 310 311 311 312 312 313 313 314 317 314 312 312 313 313 314 310 312 316 316 316 316 316 317 309 312 312 312 311 311 311 311 308 307 307 307
299 297 298 298 300 304 304 306 308 307 308 308 309 310 312 313 312 313 314 313 312 312 310 314 316 315 315 314 315 318 317 316 317 317 319 316 317 316 315 313 311 309 309 309 308
301 297 297 298 298 301 302 304 305 306 307 308 308 308 309 312 311 311 311 312 312 312 311 311 311 311 311 311 313 311 312 312 312 314 315 315 316 313 312 311 311 310 310 310 310
297 298 299 298 299 299 299 302 302 303 303 305 306 306 306 307 306 306 306 307 308 310 310 309 309 309 301 307 307 305 308 308 308 308 309 311 310 309 310 311 310 309 307 306 306

GFSSW_925_thetae_072.txt.gz
Theta_e
317 315 315 314 311 310 311 310 310 310 310 310 310 310 310 311 314 314 318 315 314 311 313 313 314 314 315 315 314 310 313 313 316 315 316 313 316 313 312 314 315 314 316 319 335
316 315 314 313 314 311 309 309 309 308 308 308 308 309 309 312 316 319 317 314 313 310 312 312 312 313 312 315 313 310 311 313 313 312 314 313 314 313 314 314 315 314 317 325 334
316 315 314 313 311 309 308 308 308 307 307 307 308 308 310 314 319 317 316 313 312 310 313 313 313 312 313 314 315 313 312 313 314 314 313 313 313 311 310 313 311 313 316 325 331
315 314 313 312 310 309 308 307 307 307 307 307 307 308 312 318 310 315 312 312 312 310 313 312 311 311 311 313 313 314 312 312 313 314 313 314 312 313 310 311 311 309 317 326 329
313 313 312 311 310 308 307 307 307 307 307 307 308 309 315 315 316 311 310 311 311 311 313 311 311 311 311 312 311 312 311 313 313 312 313 313 313 313 311 309 310 309 320 326 329
312 312 311 309 308 308 308 308 308 308 308 307 308 309 315 312 315 312 310 310 311 312 312 312 310 310 311 312 310 312 312 312 313 313 313 313 312 313 311 309 308 309 317 323 325
312 311 311 310 308 308 308 308 308 308 308 307 308 312 311 311 315 311 312 312 312 313 311 312 312 311 311 313 313 312 311 311 312 312 313 312 308 310 309 308 309 308 309 316 320
314 312 310 310 309 308 308 308 308 308 308 307 308 313 311 313 313 311 312 312 312 313 313 312 314 312 312 311 311 311 309 308 309 311 313 308 306 307 308 307 309 307 305 306 310
313 313 312 310 310 309 309 309 309 308 307 309 313 310 311 313 313 312 312 312 312 312 312 314 314 311 311 310 310 309 307 310 310 310 313 311 309 309 310 310 309 306 305 304 305
316 315 315 314 313 312 313 313 310 309 312 312 311 306 308 310 314 312 312 312 311 310 311 311 308 310 308 307 306 311 312 311 310 312 312 313 310 309 308 310 308 307 305 305 305
317 317 317 317 317 318 317 313 311 312 314 308 309 308 311 313 313 312 311 312 311 310 310 311 308 310 309 308 309 310 312 312 311 312 312 311 310 309 308 307 306 305 305 305 305
316 317 318 319 319 320 319 315 311 312 314 313 309 309 311 313 313 312 311 311 311 310 310 309 308 308 309 309 310 311 312 311 310 312 312 310 309 308 307 308 307 307 305 304 305
317 317 318 320 320 320 319 315 316 316 316 318 315 311 309 312 311 312 310 311 311 312 311 309 310 309 312 312 312 312 311 311 311 310 309 309 306 307 308 308 308 306 305 304 304
315 317 318 320 319 320 319 318 317 314 314 317 318 316 311 310 314 311 310 311 311 311 310 312 311 310 311 312 310 312 311 311 311 310 309 308 307 307 308 308 306 305 303 303 304
308 316 318 319 319 319 319 319 315 314 310 313 316 311 310 312 311 312 310 311 311 311 310 311 311 311 312 311 310 310 311 312 312 311 312 310 309 306 307 308 306 305 305 308 308
305 311 316 317 318 317 318 317 317 315 315 315 312 313 314 312 312 310 311 309 309 312 310 310 310 310 310 310 310 310 311 309 310 307 308 308 306 305 306 308 310 309 308 305 306
305 307 313 314 315 315 317 315 318 310 312 316 315 314 316 313 313 312 311 312 311 312 312 312 312 311 310 311 311 309 307 308 309 310 308 307 307 306 307 307 309 308 306 305 304
300 301 309 313 313 314 315 318 318 312 317 314 314 314 317 314 314 312 311 312 311 312 310 313 315 311 310 310 311 309 307 308 308 311 309 308 310 310 308 307 307 305 306 307 307
300 301 305 310 314 314 312 319 315 317 316 315 314 316 316 315 313 313 312 312 312 311 314 314 314 310 310 309 310 312 311 307 309 298 308 308 307 307 307 307 307 308 307 308 308
300 300 304 308 312 313 313 313 315 315 317 314 318 315 316 313 314 313 312 311 313 310 311 313 314 310 310 310 309 310 309 312 309 307 308 308 308 309 309 310 308 308 308 308 307
300 297 302 306 309 314 313 313 315 314 315 318 318 317 315 314 312 313 313 311 311 310 310 310 312 312 310 310 310 311 311 310 310 309 310 309 309 305 308 308 308 309 307 306 306
298 297 300 307 313 313 313 313 312 314 312 315 316 317 319 317 315 315 314 314 310 309 313 312 310 310 310 308 307 308 310 310 311 310 308 310 311 307 306 306 308 308 307 305 305
297 297 302 305 313 313 311 312 311 313 314 315 315 315 316 318 320 318 317 314 311 313 313 312 312 309 312 312 311 310 311 309 308 306 309 309 312 306 306 310 309 309 307 305 305
296 298 298 301 304 307 310 310 311 309 311 312 312 312 313 315 314 318 316 315 312 313 313 313 312 311 313 314 314 314 315 316 312 308 311 310 311 309 311 313 312 310 307 305 306
297 297 297 297 302 304 305 308 309 309 309 308 309 312 312 313 312 313 314 313 312 311 311 313 310 313 314 313 315 315 315 315 316 315 315 314 315 314 312 311 310 307 307 307 306
299 296 295 297 298 303 303 305 307 308 308 308 309 309 309 312 311 311 313 313 313 311 311 310 312 310 310 311 313 313 311 311 313 313 314 314 314 310 308 307 307 306 306 305 305
296 298 297 297 297 302 302 302 303 305 303 306 306 306 308 308 306 306 305 306 309 310 310 310 309 306 304 305 305 302 306 310 309 308 309 310 309 307 307 307 306 305 304 304 303

GFSSW_925_thetae_075.txt.gz
Theta_e
316 317 317 316 314 315 311 311 311 311 311 311 310 310 310 311 314 314 315 314 313 312 313 312 313 314 315 314 312 309 312 314 314 313 315 311 314 311 311 313 314 313 319 319 336
316 316 316 315 312 312 311 310 310 309 309 309 309 309 309 311 317 317 316 314 313 311 313 312 311 312 311 314 311 310 312 313 312 311 313 312 313 311 314 314 314 314 318 323 335
316 315 316 314 313 311 309 309 309 308 308 307 308 308 309 313 316 315 316 313 312 310 312 312 312 312 313 314 314 311 313 310 313 313 312 313 313 311 310 313 311 313 318 325 331
316 315 315 314 313 312 310 308 308 307 307 307 307 308 312 318 309 315 315 313 312 310 313 312 310 310 311 313 313 313 312 310 313 313 312 312 311 312 309 311 310 309 316 325 329
315 314 313 312 309 310 308 308 308 307 307 307 307 309 315 315 315 311 311 311 311 311 312 309 310 309 310 310 310 312 310 312 312 312 312 312 312 311 310 307 308 307 321 325 329
315 313 312 311 310 308 307 308 307 308 307 307 308 309 315 310 315 311 310 310 311 311 311 311 308 309 309 310 310 309 310 311 311 311 311 311 311 312 310 308 308 309 318 322 326
313 312 311 310 309 308 308 308 308 308 308 307 308 312 311 310 314 310 310 312 311 312 310 311 311 310 310 312 311 310 310 311 311 311 312 310 308 310 308 306 309 307 308 318 322
313 311 311 311 308 308 308 308 308 308 308 307 308 312 308 313 314 311 311 312 312 313 312 312 313 311 310 309 308 310 307 306 307 310 311 307 305 306 307 308 308 307 303 306 313
314 312 311 310 309 308 309 308 309 308 307 308 311 309 309 313 312 311 311 311 312 311 312 313 312 310 309 308 307 307 305 308 309 309 312 310 309 307 308 307 308 306 304 303 304
314 312 312 313 312 311 311 311 310 308 310 312 310 305 309 311 314 311 312 311 310 310 311 310 307 308 306 305 305 309 309 309 309 311 311 311 310 308 307 309 306 305 304 303 303
315 315 315 315 315 315 316 311 308 310 313 307 308 308 309 313 313 311 311 311 310 307 309 309 308 308 308 307 306 307 310 311 310 311 312 311 309 309 307 306 305 305 304 303 303
315 315 316 317 317 319 317 311 307 309 310 312 307 310 311 312 312 311 311 310 310 309 309 308 309 307 307 308 310 310 311 311 310 311 312 310 309 307 306 307 306 306 304 303 302
316 316 316 318 318 319 319 315 315 315 313 316 313 308 310 311 309 311 310 310 308 311 309 307 308 307 310 309 310 310 309 310 310 309 307 307 305 304 305 305 306 305 304 302 302
315 316 317 319 318 320 317 316 316 314 311 315 317 316 310 310 313 310 309 310 311 310 309 310 310 308 311 311 309 312 309 309 310 308 307 306 305 306 306 305 305 303 301 303 303
313 317 318 319 318 318 318 318 316 311 309 311 316 311 310 309 309 312 310 309 310 310 310 309 310 310 311 310 309 310 310 310 310 308 310 309 307 306 304 306 307 305 304 303 303
308 316 316 318 318 317 318 316 316 314 310 317 312 314 313 312 311 309 311 308 308 310 308 309 309 309 309 309 309 308 308 306 308 305 306 306 304 304 304 307 307 305 305 305 304
304 311 313 313 316 316 317 315 316 306 309 315 315 314 314 313 312 311 311 311 310 311 312 312 311 310 309 310 310 307 305 306 307 308 306 306 306 305 305 306 307 307 307 306 305
300 304 308 312 314 315 315 317 316 310 313 312 313 314 316 313 313 311 310 311 310 308 309 311 313 310 309 309 310 307 306 307 306 307 307 307 310 308 307 304 304 306 306 304 304
299 301 306 310 313 314 317 319 314 313 315 314 314 316 316 315 313 312 311 310 309 308 308 310 310 309 309 308 309 311 308 305 306 295 306 306 306 306 305 306 307 307 306 305 305
300 300 304 308 312 313 316 314 315 314 315 314 318 315 316 315 315 313 312 312 312 309 310 311 314 309 310 309 309 309 308 310 307 306 306 306 307 307 309 309 308 307 306 305 305
299 298 301 306 312 313 311 312 312 313 313 316 316 315 314 313 312 313 314 312 311 310 310 309 313 311 309 310 310 310 310 308 309 308 310 307 308 304 308 308 308 308 307 306 304
297 296 300 306 313 313 311 313 313 315 313 315 315 318 313 311 312 313 313 312 310 309 312 309 310 311 310 308 307 308 309 308 311 309 307 309 310 306 307 306 307 308 308 305 304
296 296 301 305 311 312 312 312 312 315 314 315 316 315 316 318 317 318 315 313 311 311 312 311 311 311 314 311 310 309 310 308 307 306 307 310 309 305 306 308 309 308 306 303 304
296 298 297 301 304 308 312 313 313 310 314 313 314 313 314 317 315 318 317 315 312 312 313 312 312 313 316 314 311 314 315 313 309 309 309 309 309 306 306 309 308 305 305 304 304
295 297 297 296 302 304 308 311 312 311 310 311 313 313 313 314 313 316 315 314 312 312 312 312 315 314 314 313 314 314 314 315 313 310 310 312 313 312 311 309 307 306 305 304 303
298 296 295 296 297 304 305 306 309 308 309 310 309 311 312 311 312 314 314 313 314 311 313 311 313 312 313 310 313 313 311 310 312 313 313 313 313 309 307 305 304 305 303 303 302
295 298 296 296 297 303 303 304 304 306 305 307 308 308 309 309 306 306 308 309 310 311 311 310 308 309 311 306 308 310 308 309 309 309 310 310 309 306 306 306 304 304 303 303 302

GFSSW_925_thetae_078.txt.gz
Theta_e
316 316 317 318 318 317 317 314 312 312 312 312 312 311 311 310 312 314 315 312 314 313 312 312 313 313 315 312 310 308 312 313 314 312 315 309 313 309 310 312 312 313 317 319 333
315 316 317 317 317 315 315 314 312 311 311 311 310 309 309 310 314 316 314 313 313 311 312 312 311 312 311 313 310 310 312 313 311 310 312 310 313 310 313 313 313 313 315 321 333
315 316 316 317 315 315 314 312 310 310 309 308 308 308 309 312 316 314 315 314 312 310 312 311 312 311 313 313 312 310 312 311 312 311 311 311 312 310 311 313 311 312 315 325 331
314 316 316 316 315 314 313 311 309 308 308 307 307 308 309 316 308 314 315 313 311 311 312 311 310 310 312 312 312 313 311 309 312 312 311 312 309 311 309 311 309 307 315 325 328
315 315 315 316 314 313 310 309 308 307 307 307 307 308 315 316 313 312 313 312 311 311 312 308 310 309 311 310 310 311 310 311 311 310 310 311 311 311 309 307 306 307 320 326 329
315 315 315 313 313 312 311 308 307 307 307 307 307 309 315 311 315 310 310 311 311 311 310 309 308 308 308 309 311 309 309 311 311 310 310 311 309 311 309 306 307 310 316 321 326
314 314 313 312 311 310 309 308 308 307 307 307 308 312 311 309 314 310 310 311 311 311 309 310 309 310 308 310 309 308 309 310 310 310 311 310 308 309 307 305 309 307 307 315 320
314 313 312 311 311 310 308 308 308 308 308 307 308 313 307 313 314 310 311 311 312 312 311 311 312 309 309 308 307 308 304 307 307 309 310 306 305 305 305 306 308 305 303 303 308
313 312 311 311 311 309 308 308 308 308 308 307 310 308 308 313 311 311 311 311 311 311 312 312 310 308 308 307 306 305 304 306 307 309 311 308 307 307 307 306 307 305 303 303 302
313 312 312 311 311 310 309 310 310 308 310 311 310 306 309 312 313 311 311 311 309 309 310 308 306 307 305 304 305 307 307 308 307 310 310 310 309 307 306 307 306 304 303 302 302
314 313 312 312 313 313 314 312 309 310 312 307 307 306 308 312 311 310 310 310 308 306 309 308 307 308 309 305 304 305 308 309 309 310 311 310 308 308 307 306 305 304 303 302 302
313 313 314 314 315 317 315 308 306 308 309 311 307 310 311 312 311 310 310 310 309 308 308 308 307 306 306 307 308 308 309 310 309 310 311 308 308 307 306 306 306 305 303 302 302
314 314 314 316 317 318 317 316 313 314 308 314 311 309 310 310 310 310 309 308 307 309 307 307 308 306 307 308 309 309 308 309 309 307 306 305 304 303 305 304 302 301 301 301 300
314 315 315 317 317 318 317 315 316 314 310 314 317 315 310 310 311 309 309 309 309 308 306 307 308 307 308 308 307 310 307 308 308 307 308 305 304 305 305 303 304 302 301 302 301
311 315 316 318 317 317 317 316 316 308 308 310 315 310 308 309 309 311 309 309 309 309 308 309 309 308 310 310 308 310 308 308 307 307 308 308 306 305 302 306 304 304 304 303 303
307 313 316 318 318 317 318 316 314 311 306 316 313 313 312 311 310 309 310 307 306 309 307 308 308 308 308 308 308 306 306 305 305 304 305 305 303 302 303 306 307 306 304 304 303
306 309 313 316 317 317 316 313 314 308 309 315 315 313 312 312 312 310 310 310 309 310 310 311 310 309 308 309 308 306 305 306 306 306 304 305 305 303 305 305 307 307 305 303 303
300 307 309 312 315 316 314 316 310 308 310 312 313 313 314 312 312 311 310 310 309 306 308 310 311 310 309 309 309 306 306 306 306 306 306 306 308 306 305 303 305 304 305 303 303
300 306 307 310 313 314 315 318 312 310 313 314 314 316 316 313 312 312 309 309 308 307 308 308 309 309 308 308 309 309 307 304 305 294 306 305 305 306 306 307 305 305 305 304 304
300 302 304 309 312 313 317 316 314 313 314 313 318 316 317 315 314 312 310 309 310 308 308 309 311 309 309 308 308 308 305 309 305 303 305 305 306 305 310 309 308 307 306 304 303
299 303 302 307 310 313 315 314 312 311 313 315 315 315 315 315 313 313 312 311 310 309 309 308 312 310 309 309 309 309 309 307 307 307 307 306 307 302 309 307 307 307 306 303 303
296 298 300 304 312 306 308 313 312 314 312 314 315 315 313 311 312 313 314 312 310 308 311 309 310 311 310 307 306 307 308 307 309 308 306 308 309 306 307 306 306 308 306 303 303
296 297 300 304 312 310 311 313 313 315 315 315 315 315 315 312 315 313 311 312 310 309 311 309 311 307 312 310 308 308 307 306 306 306 307 310 309 304 305 306 307 305 304 304 303
296 298 297 302 304 310 313 314 314 312 314 314 315 313 316 316 314 317 316 314 311 312 312 311 309 313 314 314 309 311 311 307 309 310 310 309 307 306 306 307 306 305 304 303 302
295 297 296 299 303 306 311 312 313 313 312 312 312 314 315 316 316 316 315 314 311 311 312 312 311 313 312 311 312 311 312 310 308 310 311 310 307 310 306 307 305 304 303 302 301
296 296 295 296 296 304 308 310 312 310 312 313 312 313 312 314 314 315 314 313 313 311 313 311 314 312 313 312 312 313 312 311 312 312 313 312 313 309 307 305 304 303 301 301 300
295 297 295 296 297 303 304 306 308 307 308 309 311 312 313 311 310 309 311 311 312 311 311 311 311 314 315 309 312 316 310 309 309 309 310 312 309 306 307 306 304 302 300 300 299

GFSSW_925_thetae_081.txt.gz
Theta_e
316 316 316 317 318 319 319 319 319 316 315 316 315 314 311 311 311 314 314 312 312 314 313 311 313 313 313 310 309 307 313 314 314 312 314 309 313 309 309 311 311 317 315 319 332
315 315 316 317 318 318 319 318 317 314 314 314 312 311 310 310 312 316 313 312 312 313 312 311 310 311 311 312 310 311 313 314 310 309 312 310 312 310 312 312 313 312 313 322 332
315 315 316 317 317 317 318 315 315 313 312 311 312 309 309 310 317 315 312 314 314 311 312 311 312 311 313 312 311 309 313 311 311 310 309 310 311 309 311 313 311 313 313 325 330
314 314 316 316 317 317 316 314 313 311 310 309 308 308 308 314 310 314 314 314 312 310 311 310 309 310 312 313 311 313 310 309 311 310 310 311 308 310 309 312 307 307 314 326 329
314 314 315 316 316 316 314 313 310 309 309 308 307 308 313 317 316 312 313 312 311 311 311 308 310 309 310 310 310 311 309 310 310 308 309 309 311 311 309 307 305 307 319 327 330
314 314 315 315 316 316 314 311 309 308 308 307 307 309 316 312 314 310 312 311 310 311 310 309 308 308 307 308 310 308 308 310 309 309 309 310 309 310 308 305 306 310 314 322 328
313 314 314 315 314 313 313 310 308 308 308 307 308 310 311 310 313 310 310 311 310 310 309 309 308 310 307 309 308 307 309 309 309 310 310 309 307 309 307 304 307 307 308 315 322
314 314 314 313 312 312 310 309 308 308 308 307 308 313 308 313 312 310 310 310 311 310 311 310 310 307 308 306 306 306 305 308 306 309 309 306 307 305 304 306 307 305 304 304 307
314 314 313 312 311 311 310 308 308 308 308 307 310 309 307 312 310 310 311 311 310 310 311 311 309 307 307 306 306 305 307 306 306 308 310 307 306 307 307 306 307 305 304 303 302
314 313 312 311 311 311 310 309 310 308 309 311 309 307 309 312 311 310 310 310 309 309 310 308 305 307 304 304 307 307 305 306 306 309 309 309 308 307 306 307 306 305 304 303 303
313 313 312 311 311 310 312 313 310 310 311 306 307 306 308 311 310 309 310 309 307 306 309 307 307 308 307 304 303 304 304 306 308 309 310 309 308 308 306 306 305 304 303 303 302
313 313 312 311 313 314 315 307 306 307 308 310 307 309 311 311 310 309 310 309 308 307 307 307 307 306 305 305 306 306 307 309 308 308 310 308 308 306 304 305 304 302 302 302 301
313 313 312 313 314 315 315 314 310 309 306 310 308 309 311 309 310 309 308 307 307 308 307 307 307 305 306 307 308 308 307 308 308 306 304 304 304 303 304 303 302 301 300 302 301
314 313 313 314 315 315 317 313 313 314 308 310 315 312 310 308 310 309 308 308 308 307 305 306 306 305 305 307 306 309 306 306 307 307 307 304 304 304 303 305 304 304 303 303 303
314 314 315 315 316 316 316 314 315 307 310 310 314 309 308 308 309 310 309 308 307 308 306 307 307 307 307 307 306 307 306 306 306 307 307 307 305 304 301 306 306 305 305 304 303
312 314 315 317 317 317 316 315 312 309 306 315 312 312 310 310 310 308 309 305 306 308 306 308 307 307 307 306 307 305 305 304 304 303 305 305 303 303 303 306 308 306 304 304 303
308 312 315 316 317 317 316 312 312 307 308 314 314 311 310 311 311 310 309 308 309 309 309 310 309 309 307 308 307 305 305 306 308 307 306 303 304 303 304 304 307 306 305 304 302
304 310 311 314 315 316 314 314 307 307 309 312 312 310 312 311 311 310 309 309 308 306 307 310 310 309 308 308 309 305 305 307 306 306 305 305 308 305 303 303 305 304 304 303 302
302 307 308 309 314 315 315 317 311 308 311 314 314 313 314 312 311 310 309 310 308 305 307 307 307 308 308 307 308 307 306 303 305 293 304 306 304 305 306 306 305 305 304 304 302
301 303 305 307 312 314 318 314 312 312 311 313 316 315 315 313 312 310 310 308 309 306 307 307 310 308 308 308 307 306 304 308 304 304 305 303 305 306 309 308 306 306 304 303 302
299 306 303 306 310 314 317 312 312 311 313 314 315 315 314 314 311 311 310 309 308 307 309 307 311 310 309 309 308 307 307 306 306 306 305 305 306 300 309 306 305 305 303 302 303
296 305 300 307 309 303 311 313 312 313 312 314 314 313 314 312 312 312 311 310 309 307 310 309 310 313 310 307 306 307 307 306 307 307 304 306 308 306 306 304 305 305 303 303 302
297 297 299 304 309 308 306 312 312 314 314 314 315 315 313 312 315 312 312 311 310 308 310 309 310 308 311 310 307 307 306 305 305 305 305 307 306 304 304 305 305 304 304 303 302
296 299 298 303 302 308 310 312 314 313 314 314 313 313 315 315 314 315 314 313 310 311 312 310 308 309 310 310 308 310 308 305 308 310 307 309 307 305 305 306 305 304 303 302 301
295 297 296 303 304 304 309 310 312 314 313 313 314 314 315 315 316 317 315 313 311 310 311 310 310 311 311 311 309 309 309 306 308 308 309 309 308 309 307 306 306 304 302 301 300
295 297 295 296 296 305 307 308 312 312 313 314 312 314 313 315 313 316 314 312 313 310 312 310 313 311 312 311 310 313 310 308 308 307 311 305 308 306 306 303 304 303 301 300 299
295 296 296 296 297 303 306 308 309 310 309 311 312 313 313 312 310 310 311 310 311 311 312 312 312 311 309 310 311 315 311 310 309 308 309 311 309 305 305 305 304 301 300 299 297

GFSSW_925_thetae_084.txt.gz
Theta_e
315 316 316 317 317 318 319 320 320 318 314 314 314 316 317 314 316 312 314 312 312 312 313 312 313 313 314 315 314 314 321 323 320 319 318 317 319 314 314 318 321 323 320 329 335
315 316 316 316 317 318 318 318 319 319 317 315 313 315 317 314 313 313 311 311 312 312 312 311 314 314 317 316 316 320 321 322 318 317 318 318 318 317 317 317 318 320 319 331 335
315 316 316 316 317 317 318 318 319 319 316 316 314 315 314 310 313 313 311 310 312 312 312 311 312 314 317 316 316 316 319 317 314 314 316 317 316 316 317 318 318 318 318 330 335
315 315 315 316 317 317 318 318 318 316 316 315 317 313 310 311 311 311 312 312 314 311 311 310 312 314 317 317 314 316 313 314 315 314 314 317 315 316 316 317 313 315 317 329 335
315 315 315 316 316 317 317 317 315 314 314 312 312 309 311 316 316 313 314 313 312 310 311 312 313 313 316 316 314 316 313 313 312 312 313 313 314 315 315 313 311 311 317 326 333
315 314 315 315 316 316 316 315 313 311 310 309 309 309 316 312 312 312 313 312 310 311 311 311 313 313 312 314 315 312 314 313 312 312 311 313 312 312 312 310 311 312 317 323 330
315 314 315 315 315 316 316 314 312 309 308 308 308 310 313 312 313 310 311 311 310 311 311 309 309 312 312 313 310 311 314 313 312 312 313 312 312 313 310 309 311 312 314 319 327
314 313 315 314 315 315 315 313 311 308 308 308 308 312 312 311 312 310 309 310 310 310 310 309 309 311 313 311 311 311 313 315 310 312 312 310 315 308 310 310 311 311 312 312 317
314 313 314 314 314 313 313 312 310 308 308 308 311 311 310 312 310 310 310 310 310 310 310 310 310 311 310 313 313 311 313 312 308 310 312 311 313 310 310 312 313 313 312 311 311
314 314 314 313 312 312 311 309 310 310 309 311 308 311 309 314 310 310 310 310 311 311 312 313 312 314 311 313 312 313 311 309 310 311 312 312 313 312 312 311 314 313 313 312 311
314 314 313 312 311 311 312 313 312 312 313 310 309 308 308 311 309 309 309 309 310 312 313 310 313 314 314 312 308 312 310 311 309 311 313 313 313 313 313 311 313 312 311 310 310
314 313 312 311 311 312 315 311 309 309 309 310 307 310 311 310 311 310 309 312 312 311 310 312 312 312 310 307 309 310 310 311 311 310 312 312 314 314 308 309 308 308 308 308 309
313 312 311 311 312 314 314 311 308 307 309 310 308 310 312 310 311 311 309 309 311 311 311 311 310 309 309 309 310 310 311 311 312 309 308 309 312 309 308 309 309 309 309 309 309
312 312 312 312 313 313 314 310 312 311 310 310 314 311 311 309 312 309 308 310 309 311 309 310 306 309 310 310 311 311 309 311 311 312 312 308 310 310 308 311 312 312 312 311 310
313 313 312 312 314 313 312 312 314 308 315 311 313 308 308 310 311 311 308 309 310 309 310 310 308 309 310 311 309 311 309 311 311 313 312 312 311 310 308 313 313 311 311 310 310
313 313 313 314 315 314 314 312 312 313 317 314 313 311 311 311 310 310 310 308 308 310 310 310 307 309 309 307 309 308 310 310 310 312 312 312 311 310 309 313 312 311 310 310 309
308 313 314 314 316 316 315 315 321 319 311 315 313 312 312 312 312 311 312 311 312 311 310 311 310 309 309 310 308 309 312 312 312 313 312 306 309 310 307 311 313 312 310 309 309
304 312 314 315 316 316 313 318 318 313 310 313 313 311 311 311 312 311 312 312 310 310 311 312 312 311 310 311 312 311 311 313 315 312 311 307 311 311 306 307 310 310 309 309 309
303 309 310 312 315 315 317 317 313 310 314 315 312 312 313 313 312 312 312 312 311 309 311 311 309 309 308 308 311 310 310 308 310 303 314 310 310 308 307 309 310 310 310 310 309
302 305 306 308 313 314 318 316 312 309 314 314 315 313 313 313 312 312 312 311 311 309 308 309 311 309 309 308 308 309 308 311 310 318 316 309 310 312 310 311 311 310 311 310 308
303 306 302 305 310 315 317 314 314 313 313 315 316 316 312 313 312 312 312 309 310 309 309 309 313 311 309 311 312 308 309 308 310 311 319 313 310 309 311 312 312 311 310 310 308
299 304 300 305 312 315 316 314 312 314 313 315 314 315 314 313 312 313 312 310 308 309 311 310 312 315 312 308 307 308 309 310 312 311 308 311 313 308 311 313 311 310 308 309 307
298 300 300 304 308 310 310 313 314 314 315 316 317 314 312 314 314 313 312 311 310 309 310 311 314 317 314 311 308 309 308 309 309 312 316 318 312 308 310 310 310 309 309 307 306
299 302 301 301 298 306 312 313 314 314 315 314 315 315 314 315 315 314 314 313 311 309 311 310 311 314 312 311 312 312 309 308 310 314 313 311 311 311 310 310 309 309 309 308 306
298 298 298 307 304 303 308 311 314 316 314 314 315 316 316 317 317 316 315 314 312 311 311 311 315 312 313 312 310 312 311 309 310 311 311 311 310 312 311 311 310 309 308 306 304
299 298 298 297 299 306 305 307 312 313 314 316 316 315 315 316 317 317 315 315 315 312 313 311 315 312 313 312 312 313 311 311 311 311 310 310 310 310 311 310 309 308 306 306 304
295 296 298 298 299 306 308 306 308 310 309 312 314 315 315 314 312 312 312 312 313 314 314 314 313 315 317 312 313 317 314 311 311 311 311 311 311 309 311 309 309 309 306 304 302

GFSSW_925_thetae_087.txt.gz
Theta_e
315 315 315 316 317 319 319 321 317 314 316 316 317 315 315 317 318 318 320 315 313 312 312 313 313 314 316 318 318 319 322 324 322 320 321 320 320 319 318 320 323 323 324 329 335
315 315 315 316 318 318 319 320 321 314 317 318 316 316 315 317 319 318 323 323 312 311 312 313 315 316 316 319 318 320 324 323 321 320 320 321 320 319 318 319 320 322 326 334 335
315 315 316 316 317 317 318 319 320 320 318 316 314 313 315 315 316 315 313 324 317 311 312 313 314 316 317 317 318 320 323 321 318 317 319 320 319 319 319 319 319 320 324 334 335
315 315 316 316 316 317 318 318 319 319 319 317 317 312 315 316 317 313 314 315 312 311 313 313 314 316 318 318 318 318 317 318 316 316 318 319 318 318 319 318 317 318 321 330 334
315 315 316 316 316 317 318 318 318 318 318 316 318 317 316 316 315 314 317 313 314 313 312 313 314 315 316 318 317 318 316 316 315 315 317 317 318 318 318 317 315 315 320 327 331
315 315 315 315 316 317 317 318 318 317 316 315 315 315 317 313 311 311 314 313 314 313 311 313 314 315 315 317 316 317 317 316 315 315 314 317 316 315 315 314 314 314 319 323 328
315 315 314 315 316 317 317 317 316 315 314 313 313 315 314 311 312 312 313 313 312 312 313 312 313 314 315 315 313 316 316 315 315 315 315 314 315 315 313 312 314 314 317 320 324
316 315 314 315 316 316 316 316 313 313 312 311 311 315 312 311 312 310 310 311 311 311 312 311 311 314 315 313 313 315 316 317 314 314 314 313 317 315 312 312 313 314 315 317 321
316 314 314 315 315 316 316 315 312 312 311 311 315 314 310 311 311 310 310 311 310 310 311 310 313 314 313 315 315 315 316 316 313 314 315 313 316 312 313 313 313 314 314 314 315
315 314 313 315 315 315 315 313 312 312 315 314 311 313 310 313 312 310 310 311 311 312 312 313 314 314 315 315 316 315 315 314 315 313 313 314 314 314 313 314 315 315 315 315 314
315 313 314 314 314 314 313 314 314 314 312 309 310 310 310 311 310 311 310 311 312 313 313 314 314 314 313 314 315 315 314 313 313 313 314 315 314 314 314 314 315 315 315 314 313
314 313 314 313 313 313 313 311 310 310 312 311 310 310 312 311 311 311 310 312 312 313 313 313 314 314 314 311 312 313 313 313 313 312 314 315 314 314 313 313 312 313 313 312 312
314 314 313 313 311 313 315 311 309 309 309 311 309 311 312 312 312 312 311 313 312 312 313 312 313 312 312 311 312 312 312 313 313 312 312 313 313 314 310 311 312 312 311 312 313
314 313 313 311 312 313 314 311 311 309 308 310 312 311 312 311 313 311 310 312 312 312 312 312 309 311 312 312 312 312 312 313 314 313 312 312 312 314 312 313 314 314 314 313 313
314 313 312 311 311 313 312 314 314 311 312 311 313 309 310 311 311 311 309 311 312 312 311 311 310 311 312 312 312 312 312 314 314 315 313 313 312 314 311 314 314 314 314 313 313
313 312 311 313 314 313 314 313 314 313 316 314 312 311 312 311 312 310 311 310 311 311 311 311 308 311 311 310 311 311 313 313 314 315 312 313 312 313 311 313 315 314 313 312 312
311 312 312 313 315 313 314 316 318 322 312 316 313 312 311 312 312 312 311 311 311 311 311 312 310 310 310 311 311 312 312 313 312 314 312 309 312 312 310 314 315 314 313 312 312
308 312 313 313 315 314 314 317 320 313 311 314 313 312 312 311 312 312 312 311 311 311 311 311 312 311 311 312 312 313 313 315 316 315 313 308 312 312 311 313 314 313 312 312 312
305 311 313 313 315 314 316 318 316 312 312 315 313 312 312 312 312 313 313 313 312 312 311 311 313 311 310 310 312 312 312 312 312 309 315 312 311 310 309 312 313 312 312 313 312
303 308 305 310 314 315 317 316 312 311 314 313 312 312 313 312 313 312 313 312 313 311 310 311 313 311 309 310 310 311 311 310 312 321 320 311 312 312 310 313 312 312 313 313 311
302 309 301 306 311 316 317 314 312 312 314 313 313 312 313 312 311 312 313 312 312 311 309 310 314 312 310 311 312 310 310 310 311 314 320 315 312 311 312 313 313 313 314 312 311
300 305 301 305 314 314 315 312 312 314 314 315 315 314 312 312 312 313 313 311 312 311 310 312 313 314 312 310 309 311 311 311 313 314 311 315 315 311 312 312 314 313 313 312 311
300 299 299 302 313 314 313 313 312 315 315 316 316 315 313 312 312 312 312 312 309 310 311 312 317 319 313 312 310 311 310 311 311 317 320 319 312 310 310 312 314 313 312 311 310
301 305 300 298 299 311 314 314 314 315 315 316 316 314 314 313 314 312 314 314 312 310 310 311 315 314 313 312 312 312 312 311 311 313 313 313 312 311 313 314 313 312 312 311 309
300 301 300 307 305 305 309 313 315 315 316 316 316 316 316 316 315 315 315 314 312 312 311 312 317 312 311 313 313 313 312 311 311 311 311 312 310 312 312 313 313 312 312 310 309
300 299 298 300 303 305 305 308 315 314 316 317 318 317 316 316 316 317 315 315 315 313 312 312 319 314 316 314 313 313 313 311 311 311 311 311 311 311 312 312 312 312 311 310 308
297 297 300 299 303 305 307 308 308 310 314 314 315 317 317 316 315 316 314 315 315 314 314 314 315 318 318 315 316 317 314 313 311 311 312 311 311 311 312 312 312 311 311 310 307

GFSSW_925_thetae_093.txt.gz
Theta_e
316 316 314 315 315 319 321 323 324 325 324 323 321 320 317 315 316 319 320 317 314 311 312 315 313 313 314 315 316 315 316 319 319 316 318 316 317 316 316 319 321 324 326 331 334
316 316 315 315 316 318 320 322 325 323 321 321 320 320 320 318 318 320 321 319 313 312 312 313 313 313 312 315 314 314 316 318 317 315 316 316 316 315 317 319 321 333 332 333 333
316 315 315 314 316 317 319 321 322 320 320 320 319 318 319 320 321 322 322 322 317 313 312 313 315 312 315 315 315 315 317 317 315 316 315 315 315 315 315 318 320 336 334 332 330
316 315 314 315 316 317 320 321 320 318 316 316 317 316 318 318 328 323 321 324 319 314 318 313 313 313 315 315 314 316 315 316 316 314 316 316 314 315 314 315 315 331 332 332 330
317 315 315 316 316 317 320 321 316 316 318 315 316 316 314 315 318 315 322 323 323 314 319 315 312 313 314 314 315 315 315 315 314 314 314 314 315 314 313 311 316 329 331 330 330
317 315 315 315 316 317 319 320 319 315 318 315 314 314 315 317 320 313 319 323 323 319 319 315 312 312 313 313 314 314 314 313 313 313 313 313 314 314 312 310 315 327 328 328 330
317 315 315 315 316 317 318 319 320 320 318 317 316 314 314 316 312 313 316 324 325 319 314 313 313 312 312 314 312 313 313 313 313 313 314 311 313 313 310 309 311 314 320 325 327
317 315 315 316 316 317 317 318 318 318 319 319 317 315 313 312 312 314 317 319 324 319 315 313 312 311 313 312 313 314 312 313 313 312 312 312 314 312 308 308 309 309 310 316 322
317 315 315 316 315 316 317 318 318 318 317 316 317 313 312 311 311 311 313 315 315 313 313 313 311 310 311 309 311 312 312 313 313 312 311 312 313 310 307 307 306 306 307 312 316
317 315 315 315 315 316 317 317 316 315 315 314 314 312 310 312 311 311 312 313 311 311 311 310 310 310 309 308 312 311 312 312 312 311 311 310 312 309 309 307 305 305 306 311 314
317 315 315 315 316 317 316 315 314 315 314 312 313 309 309 311 311 310 311 311 310 311 312 310 310 312 310 308 311 311 311 312 310 310 312 309 310 309 309 310 307 305 306 307 306
317 315 315 315 316 316 314 311 311 311 314 312 311 309 310 310 311 310 311 312 314 312 311 311 311 310 311 310 310 310 310 311 311 311 311 310 311 310 309 309 308 308 306 306 305
317 315 314 315 316 315 312 311 311 310 310 310 310 309 310 311 311 310 310 310 312 312 311 313 312 311 311 311 311 309 309 309 310 310 310 310 308 311 309 309 309 308 307 307 305
317 315 314 315 315 314 312 311 311 309 307 311 309 309 311 310 312 310 310 310 310 312 311 311 311 311 310 311 309 310 310 310 310 308 307 306 305 306 307 308 309 308 306 307 307
316 315 315 315 315 313 311 313 312 309 308 309 309 309 310 310 310 310 309 309 311 310 309 311 310 310 310 310 309 310 310 310 310 310 308 309 305 303 306 309 308 308 307 306 307
316 315 315 314 314 313 312 314 310 312 310 311 309 311 310 310 310 309 309 308 309 310 309 309 308 310 311 309 309 310 311 310 310 309 309 308 304 304 306 309 308 309 308 307 306
313 315 314 312 313 312 314 313 311 309 308 312 309 310 310 311 311 309 310 309 309 311 311 309 309 309 309 310 310 310 307 309 310 310 308 306 305 305 305 307 308 310 308 306 305
311 314 314 313 312 312 313 312 305 307 310 310 309 310 309 311 311 310 309 310 308 308 309 310 310 308 308 310 310 309 307 309 310 312 309 305 309 309 308 309 309 308 307 306 305
307 314 312 312 311 313 312 312 309 309 311 311 309 310 310 310 311 310 309 310 308 307 309 310 311 309 308 310 309 309 310 308 307 298 307 305 305 307 309 310 308 308 307 307 306
304 312 309 311 311 312 311 310 310 309 311 309 310 308 310 310 310 309 309 309 309 307 308 308 311 310 309 309 309 308 307 309 306 307 308 306 307 305 308 311 309 309 308 307 305
300 311 304 311 311 312 311 309 309 311 310 311 310 310 308 309 309 310 310 309 309 308 308 310 311 311 308 309 310 308 307 307 309 307 309 307 306 303 307 310 310 309 309 307 306
297 305 301 309 312 312 311 309 310 312 313 312 310 310 309 310 311 310 311 310 309 308 308 310 310 311 309 309 308 308 308 307 308 308 308 309 307 309 305 308 310 309 309 307 306
297 298 300 306 311 312 311 310 310 313 314 315 313 311 308 310 311 310 310 310 308 308 309 311 311 311 312 309 309 309 308 307 308 306 307 307 306 307 306 307 309 309 308 307 305
296 305 302 303 302 309 311 310 311 312 313 314 314 312 310 310 311 311 313 312 309 309 311 310 312 311 311 310 309 310 308 307 308 309 307 306 306 308 306 308 307 308 308 307 306
298 300 297 307 307 308 309 310 311 314 313 314 315 313 311 311 312 311 314 312 311 311 309 309 310 310 310 310 310 309 309 307 308 309 308 308 306 306 305 308 309 308 308 307 306
299 300 299 301 301 309 309 309 311 312 315 316 316 314 313 312 311 312 313 312 311 311 309 310 308 309 311 313 311 311 308 308 309 308 306 306 306 305 305 305 307 309 309 308 307
298 298 300 302 303 309 309 309 310 311 313 313 315 314 315 315 312 310 310 310 311 310 311 311 311 310 309 309 309 310 310 308 309 307 308 308 308 304 307 307 309 309 309 309 308

GFSSW_925_thetae_096.txt.gz
Theta_e
318 318 317 316 315 314 315 320 321 325 324 324 325 322 317 315 313 316 318 315 315 316 323 325 326 320 313 313 315 313 315 318 318 315 317 316 316 314 315 318 325 328 329 331 332
318 317 317 316 315 315 317 320 322 325 325 324 323 321 317 314 314 317 318 316 313 317 322 322 313 314 313 313 313 314 315 317 316 314 316 315 315 314 319 321 331 331 330 333 331
318 317 316 315 315 315 318 321 324 325 324 324 321 320 319 317 317 317 316 318 314 316 313 316 314 312 313 313 314 314 316 315 315 314 314 314 313 313 316 319 330 333 332 331 330
318 317 316 315 315 315 319 321 324 325 324 322 321 319 320 319 326 322 318 319 317 315 313 316 314 313 314 314 314 315 314 314 315 314 314 314 313 313 314 314 322 331 331 331 330
318 316 316 315 316 317 319 322 322 322 321 320 318 319 319 319 320 315 322 319 321 314 314 315 319 313 314 313 314 314 314 314 313 314 314 312 313 313 313 311 328 330 330 329 330
318 316 315 315 316 316 318 321 320 319 318 317 317 318 315 321 320 314 321 320 321 315 319 314 316 315 313 314 313 313 313 314 313 313 313 313 312 313 311 317 328 331 330 328 328
318 316 314 315 316 316 319 321 316 316 316 317 316 315 314 317 315 314 319 323 321 320 319 319 312 315 314 316 314 312 313 312 312 313 313 311 313 312 310 320 329 329 328 328 328
318 317 314 316 315 316 318 320 314 317 314 315 315 314 311 313 312 318 322 324 322 322 320 317 315 313 311 312 311 312 310 312 312 312 312 312 313 311 307 315 323 324 324 327 327
318 317 315 315 315 316 318 319 316 318 316 315 315 312 312 311 312 317 320 324 321 319 315 315 311 310 310 310 312 311 311 312 313 311 310 312 312 310 305 307 309 311 314 319 324
318 316 315 315 316 317 318 319 320 319 318 316 315 311 310 310 311 313 315 323 316 317 313 313 310 310 309 309 315 311 311 311 312 311 310 309 311 309 306 305 306 305 305 309 316
318 315 315 316 317 317 318 319 316 318 314 312 313 310 308 311 311 311 315 313 314 316 312 309 310 312 312 309 309 310 311 311 310 310 310 308 310 308 307 306 304 303 303 307 312
318 315 315 316 316 317 317 314 312 314 313 311 311 310 309 310 309 310 313 312 315 320 311 309 311 310 310 310 311 310 311 310 310 310 310 309 309 309 307 307 306 303 303 306 305
317 315 315 315 316 316 315 311 312 311 309 311 311 310 309 310 309 309 311 311 314 319 314 312 311 310 311 310 310 309 309 308 311 310 309 309 309 310 309 308 308 306 305 304 303
315 316 315 315 316 315 312 311 311 308 307 310 310 309 310 309 310 309 310 311 312 314 317 312 311 310 311 311 309 309 307 308 309 307 309 307 309 303 307 307 308 306 304 304 304
316 316 315 315 315 313 311 310 310 308 310 308 308 308 308 309 309 309 309 308 313 313 313 314 311 311 311 311 309 310 309 309 308 307 308 308 305 303 305 307 308 305 305 306 305
314 316 316 315 314 313 311 311 310 310 308 310 308 310 310 309 309 307 308 308 309 312 313 314 308 310 312 309 308 309 310 308 309 308 308 307 306 304 305 307 309 306 305 304 306
313 315 315 314 314 312 313 310 309 310 307 310 309 310 309 309 309 308 309 308 309 311 313 309 309 308 309 311 309 310 309 310 312 312 309 305 304 306 304 305 306 307 306 305 305
309 315 314 314 314 311 313 308 305 306 309 307 309 309 310 310 309 308 310 311 307 308 309 311 312 308 308 310 310 308 309 309 309 311 307 304 308 308 305 306 305 306 306 305 304
307 315 313 313 313 312 312 311 307 308 309 309 309 310 309 310 309 307 309 311 309 305 310 311 310 308 308 309 309 309 308 306 307 298 308 304 303 305 309 310 307 306 306 306 304
305 313 311 312 312 313 312 309 308 307 308 308 309 308 309 310 309 307 308 309 309 306 307 308 310 309 308 308 308 309 307 310 306 310 309 305 305 305 308 310 308 307 307 305 304
301 314 305 312 312 313 313 309 309 308 308 308 308 308 307 309 307 308 308 307 309 306 307 309 310 310 309 310 310 308 307 306 307 308 310 306 305 301 306 309 309 308 307 306 305
297 305 301 311 313 313 312 308 309 311 309 309 307 307 307 308 309 308 308 308 309 306 307 309 310 311 310 308 308 307 307 307 309 307 306 307 305 306 303 304 308 307 307 305 305
298 298 303 310 312 313 311 309 309 312 312 311 309 308 307 308 310 309 309 308 307 307 309 310 310 311 311 309 309 308 307 307 306 306 308 310 307 305 305 305 307 308 307 306 304
296 305 302 308 304 311 312 310 310 311 313 313 312 309 308 309 309 309 311 311 308 308 309 310 310 311 311 309 309 310 308 306 308 308 306 306 306 306 306 307 307 308 307 305 304
296 300 297 308 308 310 310 309 310 313 313 313 314 310 309 310 310 311 312 311 310 311 308 309 310 309 309 308 308 308 309 308 308 308 308 308 304 304 304 306 308 308 307 306 305
299 300 297 301 304 310 310 309 309 313 313 315 313 312 311 310 310 311 311 309 310 310 308 308 306 308 310 311 309 309 308 308 308 307 305 305 304 303 303 305 306 307 308 307 306
297 296 298 301 307 310 309 308 309 311 310 312 313 313 314 314 310 309 309 309 309 310 311 310 308 306 304 308 309 311 309 308 308 308 308 307 308 303 304 305 307 307 308 308 307

GFSSW_925_thetae_102.txt.gz
Theta_e
312 313 317 322 321 320 317 317 317 321 325 326 324 322 319 316 314 315 316 317 317 318 314 318 321 316 314 312 312 312 314 315 317 314 314 312 315 312 315 324 323 325 326 328 333
312 316 316 321 321 320 317 316 316 321 325 325 324 322 320 314 314 315 316 317 318 318 317 321 320 320 316 315 312 314 315 317 314 313 314 313 313 312 320 326 329 328 327 332 332
313 315 315 319 321 321 318 316 316 320 325 325 323 322 316 313 313 313 316 317 314 317 321 320 320 318 323 318 314 313 315 314 315 313 313 313 312 313 319 325 323 328 328 331 331
315 315 315 313 321 321 319 317 316 320 323 324 323 322 319 313 321 316 316 316 314 316 320 317 315 317 322 326 318 316 313 312 312 313 313 313 310 314 316 316 315 324 329 331 330
315 317 317 315 322 320 319 316 316 318 322 324 322 322 316 316 316 320 314 315 315 315 317 315 318 315 319 317 317 316 314 311 311 311 313 311 312 314 314 314 322 327 329 331 331
311 315 315 315 320 320 319 316 318 318 321 323 322 322 318 322 319 317 316 315 316 317 317 318 316 316 315 313 321 313 314 313 311 312 312 313 311 313 312 324 326 328 328 329 331
312 312 315 314 319 320 318 315 317 319 320 324 323 319 319 320 318 319 316 316 316 316 317 315 318 324 319 319 317 313 314 311 310 312 312 310 313 312 310 325 327 327 327 325 329
313 312 316 317 319 319 317 315 317 318 321 323 319 318 319 318 316 318 319 318 318 316 316 317 320 316 318 319 322 313 310 312 311 310 310 311 314 312 315 325 326 325 324 325 324
312 316 316 319 319 318 317 316 318 319 323 321 316 316 316 313 315 317 320 319 319 316 313 318 317 319 317 325 328 325 319 310 311 309 310 311 313 309 313 324 326 324 323 324 323
310 316 315 316 318 317 316 318 320 322 322 316 314 314 309 311 317 317 320 320 319 319 317 315 313 317 319 327 332 328 322 311 311 311 310 310 310 308 306 323 325 324 324 323 324
310 316 315 317 316 316 318 321 321 321 316 316 315 310 309 311 320 320 321 320 319 321 324 317 317 321 321 324 318 326 319 314 310 310 311 310 310 310 306 306 317 320 320 321 323
307 312 317 316 316 317 320 320 318 318 315 312 314 308 308 314 320 318 320 321 322 324 319 316 319 317 318 318 323 314 325 320 310 308 309 310 310 307 305 305 307 314 313 317 314
309 310 316 316 316 319 319 317 316 314 312 312 313 309 308 312 316 319 318 317 323 321 321 323 319 315 314 316 313 318 315 312 312 309 308 309 310 308 306 304 305 302 304 306 311
309 309 316 315 318 319 318 316 315 313 314 313 314 311 308 308 314 312 314 314 316 324 318 316 316 317 315 315 315 315 310 310 309 311 313 307 312 307 306 306 304 304 301 300 300
308 308 314 315 318 318 317 315 313 313 322 312 312 308 307 311 311 313 309 311 317 319 316 318 312 315 313 314 315 317 308 309 310 309 309 307 308 309 304 306 305 303 302 302 301
307 307 310 315 316 317 317 312 311 317 319 313 309 309 310 308 309 309 308 309 312 317 316 314 311 309 310 309 314 308 310 309 308 307 310 311 307 308 306 305 306 305 303 304 301
307 307 307 316 317 316 314 312 314 320 309 309 310 309 310 308 309 313 310 312 314 321 319 316 315 310 308 311 308 311 311 314 315 310 313 303 305 311 306 302 305 308 306 304 301
306 307 308 315 315 312 312 314 317 310 311 306 308 310 310 308 308 310 309 312 308 310 316 319 320 314 310 311 310 311 313 313 314 313 311 303 308 309 304 302 301 301 302 302 302
306 307 313 314 312 312 312 317 316 309 306 308 308 310 308 308 308 310 311 311 309 308 314 316 318 311 308 311 311 311 317 309 307 299 307 305 304 303 303 303 305 304 302 302 302
305 307 314 312 311 311 315 318 304 305 307 308 309 307 308 310 308 309 311 309 308 306 305 308 310 308 309 310 309 312 310 314 311 308 308 305 303 308 305 306 305 306 305 304 302
304 305 312 311 311 312 316 315 306 306 307 307 306 306 307 310 307 310 311 308 308 307 304 305 308 309 307 310 313 312 314 311 311 309 311 310 308 301 305 305 306 305 306 305 303
299 305 305 311 314 311 315 308 307 306 305 305 305 305 307 308 307 310 309 309 309 307 309 305 307 309 309 307 310 312 314 314 316 313 304 308 309 303 301 301 302 302 305 304 304
298 299 305 311 314 311 312 308 309 306 306 306 306 306 305 308 308 307 307 307 308 308 308 307 308 307 310 308 307 311 308 309 313 308 312 312 311 302 302 304 303 304 305 304 304
297 305 302 311 309 311 312 309 309 306 307 306 305 305 306 307 306 307 307 306 307 309 309 309 309 308 311 310 307 308 311 309 310 314 315 313 310 306 305 304 304 305 305 304 303
296 300 297 310 310 312 310 308 310 310 309 308 307 306 306 307 307 307 307 309 306 309 308 308 310 307 308 307 308 308 309 311 311 311 312 312 307 304 304 304 304 305 305 304 303
299 299 298 302 309 313 311 309 309 310 311 311 306 305 305 306 307 307 308 308 308 307 307 304 303 306 305 308 307 307 308 308 310 311 311 311 312 309 303 303 305 305 305 305 305
295 294 297 302 310 312 311 309 308 309 309 308 306 306 307 306 306 307 307 307 307 308 308 306 304 303 305 304 307 305 307 307 307 307 309 310 310 303 304 302 303 304 305 306 306

GFSSW_925_thetae_105.txt.gz
Theta_e
315 315 312 314 314 323 323 322 320 321 322 324 325 324 321 318 317 316 315 316 316 316 316 320 318 315 314 312 312 311 315 317 317 314 315 312 314 311 315 326 324 325 326 327 332
316 315 310 314 313 315 323 322 320 320 321 324 325 324 321 317 315 315 317 317 317 318 315 319 320 319 316 315 312 315 317 318 314 314 314 312 313 313 322 325 327 327 328 330 333
315 315 310 313 314 312 323 321 319 319 320 324 325 324 320 316 313 313 318 317 317 318 317 318 320 321 320 318 315 312 317 313 314 313 312 313 312 313 321 325 323 327 329 331 331
312 315 313 311 314 313 315 321 318 318 321 323 324 323 319 314 321 317 317 317 316 317 319 319 317 321 323 321 318 317 313 312 313 311 313 313 310 314 318 318 314 323 329 330 332
309 315 314 312 314 313 313 321 318 317 321 322 324 322 313 314 314 319 316 316 315 316 319 316 319 319 324 321 318 318 315 312 311 310 312 310 312 314 315 312 318 326 330 330 332
310 311 314 314 315 315 313 322 318 317 321 322 323 321 317 319 317 317 314 316 315 315 316 317 317 315 316 316 323 317 314 315 313 310 311 312 311 312 313 322 324 328 330 330 330
310 311 311 315 315 315 313 321 319 318 320 323 323 319 319 320 319 316 315 315 316 316 317 317 317 321 317 317 317 310 316 313 312 311 312 310 312 312 311 324 326 326 328 329 329
311 310 311 312 315 315 315 320 320 318 320 323 321 320 321 319 317 317 316 316 316 317 318 318 320 316 320 320 321 317 312 315 314 310 311 309 317 313 314 326 327 326 325 328 328
310 310 311 312 313 315 315 320 319 318 320 322 320 318 316 315 315 318 317 319 314 316 317 320 320 318 319 324 326 321 321 314 313 309 310 310 314 311 315 323 325 325 325 326 326
309 309 310 313 312 314 319 319 318 319 321 321 318 318 310 317 316 318 317 318 317 316 316 316 316 320 321 327 333 326 325 314 312 310 309 310 310 309 307 323 323 324 324 325 325
309 309 310 314 314 315 320 319 320 320 320 319 317 313 310 315 317 320 319 319 319 319 319 315 322 328 325 326 325 325 324 325 311 310 310 309 310 312 306 314 321 323 324 324 324
307 309 310 310 315 317 319 319 318 318 321 315 315 308 312 318 321 320 319 319 321 321 315 316 322 321 322 324 318 325 325 322 315 309 309 310 310 310 305 305 310 319 321 323 322
306 308 308 309 315 319 318 317 317 316 315 315 311 311 314 316 320 321 319 320 319 321 320 320 319 316 321 323 326 320 327 324 323 309 307 308 312 310 306 304 303 305 314 317 322
306 308 307 308 315 318 317 316 317 315 317 315 313 312 309 313 317 316 317 318 320 322 321 321 317 316 319 321 323 325 317 311 310 312 325 307 315 311 308 307 304 304 302 308 312
305 307 306 306 317 318 317 316 314 315 323 312 312 310 308 315 315 315 310 314 321 318 318 320 316 316 317 318 315 320 316 314 310 310 307 306 310 312 305 306 307 304 303 303 303
305 306 305 307 316 317 316 314 315 320 320 312 310 311 312 311 311 309 312 310 314 316 315 314 310 314 315 312 316 311 315 315 313 311 318 311 312 310 314 308 307 305 305 305 303
304 307 306 307 315 316 313 314 319 323 309 310 311 312 312 312 314 316 312 315 320 322 320 316 314 312 308 309 312 315 318 320 321 317 318 303 309 314 308 304 307 308 307 305 304
304 306 305 306 311 314 313 317 322 312 312 309 311 312 312 312 313 314 314 317 309 313 320 321 321 314 309 309 312 315 317 319 321 318 312 302 310 310 306 307 302 302 303 302 302
303 306 306 306 308 314 315 318 316 313 307 311 311 313 310 308 314 314 313 316 311 310 318 321 321 312 310 311 310 311 316 308 309 297 306 306 304 305 303 303 303 304 303 303 302
304 306 307 307 313 314 315 314 306 306 307 310 314 310 312 309 310 313 312 309 310 308 308 312 313 311 311 310 310 310 312 316 315 313 308 306 304 310 306 306 305 304 305 305 302
304 302 304 306 314 315 314 312 306 306 309 309 307 306 309 309 309 311 312 308 306 308 304 307 308 307 307 311 313 313 314 315 314 309 311 308 308 301 306 305 305 305 304 304 304
299 304 305 310 317 315 317 307 307 308 304 304 304 304 310 309 308 309 311 308 307 308 306 305 306 309 311 307 309 311 312 314 318 316 307 308 309 303 301 301 302 302 301 303 304
298 299 302 302 311 315 313 309 307 306 305 305 305 305 307 309 310 307 308 307 307 309 310 306 307 306 311 309 306 312 310 312 311 312 315 317 318 302 302 303 303 304 303 304 304
299 304 299 298 308 315 313 310 308 306 306 303 303 306 306 308 305 307 307 305 306 308 310 308 307 309 312 311 308 311 311 311 314 317 314 314 315 307 307 307 304 304 304 305 304
297 301 297 307 308 312 312 310 308 307 307 304 305 307 306 307 306 306 306 306 306 309 308 307 306 306 307 306 308 310 311 309 313 315 316 315 314 312 310 309 309 303 305 305 304
299 300 298 302 307 312 311 311 308 309 308 307 305 306 304 306 307 306 306 306 307 306 306 304 303 306 305 307 306 308 310 311 310 311 312 312 310 306 304 302 302 304 304 305 305
295 294 298 302 309 312 311 309 308 309 308 305 304 305 304 304 304 305 306 306 306 309 309 306 304 302 299 303 305 304 307 309 311 311 310 311 310 307 305 304 306 306 302 304 305